| time (UTC) | temp F | wind direction | speed knots | gust knots | rain 1hr in | rain 24hr in | rain mn in | humidity % | barometer mb |
| 20260502163620 | 47 | 278 | 4.3 | 7.8 | 0.00 | 0.01 | 0.01 | 12 | 1011.4 |
| 20260502163451 | 47 | 331 | 2.6 | 7.8 | 0.00 | 0.01 | 0.01 | 6 | 1011.4 |
| 20260502163355 | 47 | 346 | 2.6 | 7.8 | 0.00 | 0.01 | 0.01 | 7 | 1011.4 |
| 20260502163238 | 47 | 310 | 4.3 | 7.8 | 0.00 | 0.01 | 0.01 | 1 | 1011.4 |
| 20260502163201 | 47 | 314 | 5.2 | 7.8 | 0.00 | 0.01 | 0.01 | 1 | 1011.4 |
| 20260502163122 | 47 | 308 | 4.3 | 7.8 | 0.00 | 0.01 | 0.01 | 6 | 1011.4 |
| 20260502162926 | 47 | 11 | 1.7 | 7.8 | 0.00 | 0.01 | 0.01 | 5 | 1011.5 |
| 20260502162850 | 47 | 36 | 1.7 | 7.8 | 0.00 | 0.01 | 0.01 | 6 | 1011.5 |
| 20260502162753 | 47 | 287 | 3.5 | 7.8 | 0.00 | 0.01 | 0.01 | 6 | 1011.5 |
| 20260502162631 | 47 | 311 | 3.5 | 7.8 | 0.00 | 0.01 | 0.01 | 5 | 1011.5 |
| 20260502162534 | 47 | 334 | 4.3 | 7.8 | 0.00 | 0.01 | 0.01 | 2 | 1011.5 |
| 20260502162456 | 47 | 306 | 5.2 | 7.8 | 0.00 | 0.01 | 0.01 | 1 | 1011.5 |
| 20260502162420 | 47 | 355 | 5.2 | 7.8 | 0.00 | 0.01 | 0.01 | 1 | 1011.5 |
| 20260502162227 | 47 | 344 | 3.5 | 7.8 | 0.00 | 0.01 | 0.01 | 1 | 1011.6 |
| 20260502162129 | 47 | 35 | 3.5 | 7.8 | 0.00 | 0.01 | 0.01 | 1 | 1011.6 |
| 20260502162034 | 47 | 43 | 3.5 | 7.8 | 0.00 | 0.01 | 0.01 | 1 | 1011.6 |
| 20260502162004 | 47 | 355 | 3.5 | 7.8 | 0.00 | 0.01 | 0.01 | 1 | 1011.6 |
| 20260502161927 | 47 | 355 | 3.5 | 7.8 | 0.00 | 0.01 | 0.01 | 1 | 1011.6 |
| 20260502161756 | 47 | 300 | 1.7 | 7.8 | 0.00 | 0.01 | 0.01 | 1 | 1011.6 |
| 20260502161658 | 47 | 360 | 1.7 | 7.8 | 0.00 | 0.01 | 0.01 | 1 | 1011.6 |
| 20260502161619 | 47 | 287 | 2.6 | 7.8 | 0.00 | 0.01 | 0.01 | 1 | 1011.6 |
| 20260502161443 | 47 | 316 | 2.6 | 7.8 | 0.00 | 0.01 | 0.01 | 1 | 1011.7 |
| 20260502161346 | 47 | 12 | 1.7 | 7.8 | 0.00 | 0.01 | 0.01 | 1 | 1011.7 |
| 20260502161303 | 47 | 42 | 2.6 | 8.7 | 0.00 | 0.01 | 0.01 | 1 | 1011.7 |
| 20260502161111 | 47 | 30 | 5.2 | 8.7 | 0.00 | 0.01 | 0.01 | 1 | 1011.7 |
| 20260502161033 | 47 | 347 | 6.1 | 8.7 | 0.00 | 0.01 | 0.01 | 1 | 1011.7 |
| 20260502160835 | 47 | 341 | 3.5 | 8.7 | 0.00 | 0.01 | 0.01 | 1 | 1011.7 |
| 20260502160757 | 47 | 30 | 2.6 | 8.7 | 0.00 | 0.01 | 0.01 | 1 | 1011.7 |
| 20260502160700 | 47 | 55 | 2.6 | 8.7 | 0.00 | 0.01 | 0.01 | 1 | 1011.7 |
| 20260502160543 | 46 | 24 | 3.5 | 8.7 | 0.00 | 0.01 | 0.01 | 1 | 1011.7 |
| 20260502160427 | 46 | 28 | 3.5 | 8.7 | 0.00 | 0.01 | 0.01 | 1 | 1011.8 |
| 20260502160348 | 47 | 51 | 2.6 | 5.2 | 0.00 | 0.01 | 0.01 | 1 | 1011.8 |
| 20260502160230 | 46 | 349 | 1.7 | 7.0 | 0.00 | 0.01 | 0.01 | 1 | 1011.8 |
| 20260502160135 | 46 | 355 | 1.7 | 8.7 | 0.00 | 0.01 | 0.01 | 1 | 1011.9 |
| 20260502152332 | 46 | 344 | 3.5 | 5.2 | 0.00 | 0.01 | 0.01 | 1 | 1012.2 |
| 20260502152253 | 45 | 341 | 3.5 | 5.2 | 0.00 | 0.01 | 0.01 | 1 | 1012.2 |
| 20260502152154 | 45 | 325 | 3.5 | 5.2 | 0.00 | 0.01 | 0.01 | 1 | 1012.2 |
| 20260502152037 | 45 | 336 | 2.6 | 4.3 | 0.00 | 0.01 | 0.01 | 1 | 1012.2 |
| 20260502152000 | 45 | 335 | 3.5 | 4.3 | 0.00 | 0.01 | 0.01 | 1 | 1012.2 |
| 20260502151916 | 45 | 338 | 3.5 | 4.3 | 0.00 | 0.01 | 0.01 | 1 | 1012.2 |
| 20260502151734 | 45 | 350 | 2.6 | 6.1 | 0.00 | 0.01 | 0.01 | 1 | 1012.2 |
| 20260502151651 | 45 | 350 | 2.6 | 6.1 | 0.00 | 0.01 | 0.01 | 1 | 1012.2 |
| 20260502151459 | 45 | 346 | 2.6 | 6.1 | 0.00 | 0.01 | 0.01 | 1 | 1012.2 |
| 20260502151420 | 45 | 341 | 2.6 | 6.1 | 0.00 | 0.01 | 0.01 | 1 | 1012.2 |
| 20260502151228 | 45 | 312 | 1.7 | 6.1 | 0.00 | 0.01 | 0.01 | 1 | 1012.3 |
| 20260502151131 | 45 | 344 | 0.9 | 6.1 | 0.00 | 0.01 | 0.01 | 1 | 1012.2 |
| 20260502151035 | 45 | 313 | 2.6 | 6.1 | 0.00 | 0.01 | 0.01 | 1 | 1012.3 |
| 20260502150944 | 45 | 310 | 2.6 | 6.1 | 0.00 | 0.01 | 0.01 | 1 | 1012.3 |
| 20260502130747 | 42 | 325 | 2.6 | 5.2 | 0.00 | 0.01 | 0.01 | 1 | 1012.3 |
| 20260502130708 | 42 | 338 | 2.6 | 5.2 | 0.00 | 0.01 | 0.01 | 1 | 1012.2 |
| 20260502130612 | 42 | 306 | 1.7 | 3.5 | 0.00 | 0.01 | 0.01 | 1 | 1012.2 |
| 20260502130533 | 42 | 289 | 2.6 | 3.5 | 0.00 | 0.01 | 0.01 | 1 | 1012.2 |
| 20260502130336 | 42 | 286 | 1.7 | 3.5 | 0.00 | 0.01 | 0.01 | 1 | 1012.2 |
| 20260502130237 | 42 | 335 | 1.7 | 3.5 | 0.00 | 0.01 | 0.01 | 1 | 1012.2 |
| 20260502130143 | 42 | 335 | 1.7 | 4.3 | 0.00 | 0.01 | 0.01 | 1 | 1012.2 |
| 20260502123757 | 42 | 315 | 3.5 | 5.2 | 0.00 | 0.01 | 0.01 | 1 | 1012.0 |
| 20260502123659 | 42 | 343 | 3.5 | 5.2 | 0.00 | 0.01 | 0.01 | 1 | 1012.0 |
| 20260502123527 | 42 | 339 | 3.5 | 5.2 | 0.00 | 0.01 | 0.01 | 1 | 1012.0 |
| 20260502123443 | 42 | 335 | 2.6 | 4.3 | 0.00 | 0.01 | 0.01 | 1 | 1012.0 |
| 20260502123344 | 42 | 309 | 2.6 | 4.3 | 0.00 | 0.01 | 0.01 | 1 | 1012.1 |
| 20260502123226 | 42 | 355 | 2.6 | 4.3 | 0.00 | 0.01 | 0.01 | 1 | 1012.0 |
| 20260502123126 | 42 | 317 | 2.6 | 4.3 | 0.00 | 0.01 | 0.01 | 1 | 1012.1 |
| 20260502122930 | 42 | 333 | 3.5 | 4.3 | 0.00 | 0.01 | 0.01 | 1 | 1012.1 |
| 20260502122833 | 42 | 322 | 2.6 | 5.2 | 0.00 | 0.01 | 0.01 | 1 | 1012.1 |
| 20260502122734 | 42 | 313 | 2.6 | 5.2 | 0.01 | 0.01 | 0.01 | 1 | 1012.1 |
| 20260502122658 | 42 | 312 | 2.6 | 5.2 | 0.01 | 0.01 | 0.01 | 1 | 1012.1 |
| 20260502122623 | 42 | 311 | 2.6 | 5.2 | 0.01 | 0.01 | 0.01 | 1 | 1012.1 |
| 20260502122426 | 42 | 310 | 1.7 | 5.2 | 0.01 | 0.01 | 0.01 | 1 | 1012.1 |
| 20260502122348 | 42 | 310 | 1.7 | 5.2 | 0.01 | 0.01 | 0.01 | 1 | 1012.1 |
| 20260502122230 | 42 | 323 | 2.6 | 5.2 | 0.01 | 0.01 | 0.01 | 1 | 1012.1 |
| 20260502122152 | 42 | 336 | 2.6 | 5.2 | 0.01 | 0.01 | 0.01 | 1 | 1012.1 |
| 20260502122057 | 42 | 309 | 2.6 | 5.2 | 0.01 | 0.01 | 0.01 | 1 | 1012.1 |
| 20260502121936 | 42 | 321 | 1.7 | 5.2 | 0.01 | 0.01 | 0.01 | 1 | 1012.1 |
| 20260502121841 | 42 | 288 | 2.6 | 5.2 | 0.01 | 0.01 | 0.01 | 1 | 1012.1 |
| 20260502121739 | 42 | 275 | 3.5 | 5.2 | 0.01 | 0.01 | 0.01 | 1 | 1012.1 |
| 20260502121607 | 42 | 323 | 2.6 | 4.3 | 0.01 | 0.01 | 0.01 | 1 | 1012.1 |
| 20260502121525 | 42 | 340 | 1.7 | 4.3 | 0.01 | 0.01 | 0.01 | 1 | 1012.1 |
| 20260502121355 | 42 | 313 | 1.7 | 4.3 | 0.01 | 0.01 | 0.01 | 1 | 1012.2 |
| 20260502121255 | 42 | 312 | 2.6 | 4.3 | 0.01 | 0.01 | 0.01 | 1 | 1012.2 |
| 20260502121125 | 42 | 350 | 1.7 | 4.3 | 0.01 | 0.01 | 0.01 | 1 | 1012.1 |
| 20260502121017 | 42 | 344 | 1.7 | 4.3 | 0.01 | 0.01 | 0.01 | 1 | 1012.1 |
| 20260502120838 | 42 | 338 | 2.6 | 4.3 | 0.01 | 0.01 | 0.01 | 1 | 1012.1 |
| 20260502120753 | 42 | 340 | 3.5 | 5.2 | 0.01 | 0.01 | 0.01 | 1 | 1012.1 |
| 20260502120541 | 42 | 339 | 0.9 | 5.2 | 0.01 | 0.01 | 0.01 | 1 | 1012.2 |
| 20260502120435 | 42 | 297 | 1.7 | 5.2 | 0.01 | 0.01 | 0.01 | 1 | 1012.2 |
| 20260502120325 | 42 | 297 | 2.6 | 5.2 | 0.01 | 0.01 | 0.01 | 1 | 1012.1 |
| 20260502120245 | 42 | 327 | 1.7 | 5.2 | 0.01 | 0.01 | 0.01 | 1 | 1012.1 |
| 20260502115932 | 42 | 263 | 3.5 | 5.2 | 0.01 | 0.01 | 0.01 | 1 | 1012.1 |
| 20260502115835 | 42 | 343 | 2.6 | 5.2 | 0.01 | 0.01 | 0.01 | 1 | 1012.1 |
| 20260502115757 | 42 | 342 | 2.6 | 5.2 | 0.01 | 0.01 | 0.01 | 1 | 1012.1 |
| 20260502115730 | 42 | 328 | 2.6 | 5.2 | 0.01 | 0.01 | 0.01 | 1 | 1012.1 |
| 20260502115533 | 42 | 348 | 0.9 | 4.3 | 0.01 | 0.01 | 0.01 | 1 | 1012.0 |
| 20260502115456 | 42 | 311 | 0.9 | 4.3 | 0.01 | 0.01 | 0.01 | 1 | 1012.0 |
| 20260502115344 | 42 | 311 | 1.7 | 4.3 | 0.01 | 0.01 | 0.01 | 1 | 1012.1 |
| 20260502115306 | 42 | 311 | 2.6 | 4.3 | 0.01 | 0.01 | 0.01 | 1 | 1012.1 |
| 20260502115134 | 42 | 331 | 1.7 | 4.3 | 0.01 | 0.01 | 0.01 | 1 | 1012.0 |
| 20260502115026 | 42 | 319 | 1.7 | 4.3 | 0.01 | 0.01 | 0.01 | 1 | 1012.0 |
| 20260502114836 | 42 | 227 | 2.6 | 5.2 | 0.01 | 0.01 | 0.01 | 1 | 1012.0 |
| 20260502114729 | 42 | 331 | 2.6 | 4.3 | 0.01 | 0.01 | 0.01 | 1 | 1012.0 |
| 20260502114651 | 42 | 315 | 1.7 | 3.5 | 0.01 | 0.01 | 0.01 | 1 | 1012.0 |
| 20260502114536 | 42 | 346 | 0.9 | 3.5 | 0.01 | 0.01 | 0.01 | 1 | 1012.0 |
| 20260502114456 | 42 | 286 | 0.9 | 3.5 | 0.01 | 0.01 | 0.01 | 1 | 1011.9 |
| 20260502114338 | 42 | 286 | 0.9 | 5.2 | 0.01 | 0.01 | 0.01 | 1 | 1011.9 |
| 20260502114305 | 42 | 283 | 0.9 | 5.2 | 0.01 | 0.01 | 0.01 | 1 | 1011.9 |
| 20260502114225 | 42 | 263 | 1.7 | 5.2 | 0.01 | 0.01 | 0.01 | 1 | 1011.9 |
| 20260502114029 | 42 | 267 | 0.9 | 5.2 | 0.01 | 0.01 | 0.01 | 1 | 1011.9 |
| 20260502113952 | 42 | 301 | 0.9 | 5.2 | 0.01 | 0.01 | 0.01 | 1 | 1011.9 |
| 20260502113835 | 42 | 300 | 0.9 | 5.2 | 0.01 | 0.01 | 0.01 | 1 | 1011.9 |
| 20260502113757 | 42 | 300 | 0.9 | 5.2 | 0.01 | 0.01 | 0.01 | 1 | 1011.9 |
| 20260502113618 | 42 | 300 | 1.7 | 5.2 | 0.01 | 0.01 | 0.01 | 1 | 1011.9 |
| 20260502113550 | 42 | 300 | 1.7 | 5.2 | 0.01 | 0.01 | 0.01 | 1 | 1011.9 |
| 20260502113427 | 42 | 293 | 0.0 | 1.7 | 0.01 | 0.01 | 0.01 | 1 | 1011.8 |
| 20260502113148 | 42 | 254 | 0.0 | 0.0 | 0.01 | 0.01 | 0.01 | 1 | 1011.8 |
| 20260502113109 | 42 | 254 | 0.0 | 0.0 | 0.01 | 0.01 | 0.01 | 1 | 1011.8 |
| 20260502113030 | 42 | 254 | 0.0 | 0.0 | 0.01 | 0.01 | 0.01 | 1 | 1011.8 |
| 20260502112912 | 42 | 254 | 0.0 | 0.0 | 0.01 | 0.01 | 0.01 | 1 | 1011.8 |
| 20260502112834 | 42 | 254 | 0.0 | 0.0 | 0.01 | 0.01 | 0.01 | 1 | 1011.8 |
| 20260502112704 | 42 | 254 | 0.0 | 0.0 | 0.00 | 0.00 | 0.00 | 1 | 1011.8 |
| 20260502112617 | 42 | 254 | 0.0 | 0.0 | 0.00 | 0.00 | 0.00 | 1 | 1011.8 |
| 20260502112426 | 42 | 254 | 0.0 | 0.0 | 0.00 | 0.00 | 0.00 | 1 | 1011.7 |
| 20260502112341 | 42 | 254 | 0.0 | 0.0 | 0.00 | 0.00 | 0.00 | 1 | 1011.7 |
| 20260502112215 | 42 | 254 | 0.0 | 0.0 | 0.00 | 0.00 | 0.00 | 1 | 1011.7 |
| 20260502112137 | 42 | 254 | 0.0 | 0.0 | 0.00 | 0.00 | 0.00 | 1 | 1011.7 |
| 20260502112006 | 42 | 254 | 0.0 | 0.0 | 0.00 | 0.00 | 0.00 | 1 | 1011.7 |
| 20260502111849 | 42 | 254 | 0.0 | 0.0 | 0.00 | 0.00 | 0.00 | 1 | 1011.7 |
| 20260502111810 | 42 | 254 | 0.0 | 0.0 | 0.00 | 0.00 | 0.00 | 1 | 1011.7 |
| 20260502111710 | 42 | 254 | 0.0 | 0.0 | 0.00 | 0.00 | 0.00 | 1 | 1011.6 |
| 20260502111614 | 42 | 254 | 0.0 | 0.0 | 0.00 | 0.00 | 0.00 | 1 | 1011.6 |
| 20260502111535 | 42 | 254 | 0.0 | 0.0 | 0.00 | 0.00 | 0.00 | 1 | 1011.6 |
| 20260502111406 | 42 | 254 | 0.0 | 0.0 | 0.00 | 0.00 | 0.00 | 1 | 1011.6 |
| 20260502111320 | 42 | 254 | 0.0 | 0.0 | 0.00 | 0.00 | 0.00 | 1 | 1011.6 |
| 20260502111131 | 42 | 254 | 0.0 | 0.0 | 0.00 | 0.00 | 0.00 | 1 | 1011.5 |
| 20260502111054 | 42 | 254 | 0.0 | 0.0 | 0.00 | 0.00 | 0.00 | 1 | 1011.5 |
| 20260502110939 | 42 | 254 | 0.0 | 0.0 | 0.00 | 0.00 | 0.00 | 1 | 1011.5 |
| 20260502110902 | 42 | 254 | 0.0 | 0.0 | 0.00 | 0.00 | 0.00 | 1 | 1011.5 |
| 20260502110823 | 42 | 254 | 0.0 | 0.0 | 0.00 | 0.00 | 0.00 | 1 | 1011.6 |
| 20260502110627 | 42 | 254 | 0.0 | 0.0 | 0.00 | 0.00 | 0.00 | 1 | 1011.6 |
| 20260502110550 | 42 | 254 | 0.0 | 0.0 | 0.00 | 0.00 | 0.00 | 1 | 1011.6 |
| 20260502110455 | 42 | 254 | 0.0 | 0.0 | 0.00 | 0.00 | 0.00 | 1 | 1011.6 |
| 20260502110416 | 42 | 254 | 0.0 | 0.0 | 0.00 | 0.00 | 0.00 | 1 | 1011.6 |
| 20260502110219 | 42 | 254 | 0.0 | 0.0 | 0.00 | 0.00 | 0.00 | 1 | 1011.6 |
| 20260502110131 | 42 | 254 | 0.0 | 0.0 | 0.00 | 0.00 | 0.00 | 1 | 1011.6 |
| 20260502110034 | 42 | 254 | 0.0 | 0.0 | 0.00 | 0.00 | 0.00 | 1 | 1011.6 |
| 20260502105959 | 42 | 254 | 0.0 | 0.0 | 0.00 | 0.00 | 0.00 | 1 | 1011.6 |
| 20260502105921 | 42 | 254 | 0.0 | 0.0 | 0.00 | 0.00 | 0.00 | 1 | 1011.6 |
| 20260502105723 | 42 | 254 | 0.0 | 0.0 | 0.00 | 0.00 | 0.00 | 1 | 1011.6 |
| 20260502105646 | 42 | 254 | 0.0 | 0.0 | 0.00 | 0.00 | 0.00 | 1 | 1011.6 |
| 20260502105530 | 42 | 254 | 0.0 | 0.0 | 0.00 | 0.00 | 0.00 | 1 | 1011.6 |
| 20260502105451 | 42 | 254 | 0.0 | 0.0 | 0.00 | 0.00 | 0.00 | 1 | 1011.6 |
| 20260502105352 | 42 | 254 | 0.0 | 0.0 | 0.00 | 0.00 | 0.00 | 1 | 1011.6 |
| 20260502105235 | 42 | 254 | 0.0 | 0.0 | 0.00 | 0.00 | 0.00 | 1 | 1011.6 |
| 20260502105158 | 42 | 254 | 0.0 | 0.0 | 0.00 | 0.00 | 0.00 | 1 | 1011.6 |
| 20260502105040 | 42 | 254 | 0.0 | 0.0 | 0.00 | 0.00 | 0.00 | 1 | 1011.6 |
| 20260502104944 | 42 | 254 | 0.0 | 0.0 | 0.00 | 0.00 | 0.00 | 1 | 1011.6 |
| 20260502104814 | 42 | 254 | 0.0 | 0.0 | 0.00 | 0.00 | 0.00 | 1 | 1011.5 |
| 20260502104730 | 42 | 254 | 0.0 | 0.0 | 0.00 | 0.00 | 0.00 | 1 | 1011.5 |
| 20260502104601 | 42 | 254 | 0.0 | 0.0 | 0.00 | 0.00 | 0.00 | 1 | 1011.6 |
| 20260502104501 | 42 | 254 | 0.0 | 0.0 | 0.00 | 0.00 | 0.00 | 1 | 1011.5 |
| 20260502104222 | 42 | 254 | 0.0 | 0.0 | 0.00 | 0.00 | 0.00 | 1 | 1011.5 |
| 20260502104145 | 42 | 254 | 0.0 | 0.0 | 0.00 | 0.00 | 0.00 | 1 | 1011.5 |
| 20260502104048 | 42 | 254 | 0.0 | 0.0 | 0.00 | 0.00 | 0.00 | 1 | 1011.5 |
| 20260502103949 | 42 | 277 | 0.0 | 0.0 | 0.00 | 0.00 | 0.00 | 1 | 1011.5 |
| 20260502103911 | 42 | 277 | 0.0 | 0.0 | 0.00 | 0.00 | 0.00 | 1 | 1011.5 |
| 20260502103816 | 42 | 277 | 0.0 | 0.0 | 0.00 | 0.00 | 0.00 | 1 | 1011.5 |
| 20260502103719 | 42 | 277 | 0.0 | 0.0 | 0.00 | 0.00 | 0.00 | 1 | 1011.5 |
| 20260502103523 | 42 | 277 | 0.0 | 0.0 | 0.00 | 0.00 | 0.00 | 1 | 1011.6 |
| 20260502103425 | 42 | 277 | 0.0 | 0.0 | 0.00 | 0.00 | 0.00 | 1 | 1011.5 |
| 20260502103329 | 42 | 277 | 0.0 | 0.0 | 0.00 | 0.00 | 0.00 | 1 | 1011.5 |
| 20260502103249 | 42 | 277 | 0.0 | 0.0 | 0.00 | 0.00 | 0.00 | 1 | 1011.5 |
| 20260502103119 | 42 | 277 | 0.0 | 0.0 | 0.00 | 0.00 | 0.00 | 1 | 1011.5 |
| 20260502103033 | 42 | 277 | 0.0 | 0.0 | 0.00 | 0.00 | 0.00 | 1 | 1011.5 |
| 20260502102904 | 42 | 277 | 0.0 | 0.0 | 0.00 | 0.00 | 0.00 | 1 | 1011.5 |
| 20260502102825 | 42 | 277 | 0.0 | 0.0 | 0.00 | 0.00 | 0.00 | 1 | 1011.6 |
| 20260502102626 | 42 | 277 | 0.0 | 0.0 | 0.00 | 0.00 | 0.00 | 1 | 1011.6 |
| 20260502102552 | 42 | 277 | 0.0 | 0.0 | 0.00 | 0.00 | 0.00 | 1 | 1011.6 |
| 20260502102433 | 42 | 277 | 0.0 | 0.0 | 0.00 | 0.00 | 0.00 | 1 | 1011.6 |
| 20260502102326 | 42 | 277 | 0.0 | 0.0 | 0.00 | 0.00 | 0.00 | 1 | 1011.5 |
| 20260502102136 | 42 | 277 | 0.0 | 0.0 | 0.00 | 0.00 | 0.00 | 1 | 1011.4 |
| 20260502102032 | 42 | 277 | 0.0 | 0.0 | 0.00 | 0.00 | 0.00 | 1 | 1011.4 |
| 20260502101915 | 42 | 277 | 0.0 | 0.0 | 0.00 | 0.00 | 0.00 | 1 | 1011.4 |
| 20260502101808 | 42 | 277 | 0.0 | 0.0 | 0.00 | 0.00 | 0.00 | 1 | 1011.3 |
| 20260502101712 | 42 | 277 | 0.0 | 0.0 | 0.00 | 0.00 | 0.00 | 1 | 1011.3 |
| 20260502101446 | 41 | 277 | 0.0 | 0.0 | 0.00 | 0.00 | 0.00 | 1 | 1011.2 |
| 20260502101229 | 41 | 277 | 0.0 | 0.0 | 0.00 | 0.00 | 0.00 | 1 | 1011.2 |
| 20260502101130 | 41 | 277 | 0.0 | 0.0 | 0.00 | 0.00 | 0.00 | 1 | 1011.1 |
| 20260502101032 | 41 | 277 | 0.0 | 0.0 | 0.00 | 0.00 | 0.00 | 1 | 1011.1 |
| 20260502100954 | 41 | 277 | 0.0 | 0.0 | 0.00 | 0.00 | 0.00 | 1 | 1011.1 |
| 20260502100856 | 41 | 277 | 0.0 | 0.0 | 0.00 | 0.00 | 0.00 | 1 | 1011.1 |
| 20260502100759 | 41 | 277 | 0.0 | 0.0 | 0.00 | 0.00 | 0.00 | 1 | 1011.2 |
| 20260502100639 | 41 | 277 | 0.0 | 0.0 | 0.00 | 0.00 | 0.00 | 1 | 1011.3 |
| 20260502100542 | 41 | 277 | 0.0 | 0.0 | 0.00 | 0.00 | 0.00 | 1 | 1011.3 |
| 20260502100442 | 41 | 277 | 0.0 | 0.0 | 0.00 | 0.00 | 0.00 | 1 | 1011.3 |
| 20260502100316 | 42 | 277 | 0.0 | 0.0 | 0.00 | 0.00 | 0.00 | 1 | 1011.2 |
| 20260502100230 | 41 | 277 | 0.0 | 0.0 | 0.00 | 0.00 | 0.00 | 1 | 1011.3 |
| 20260502091526 | 42 | 277 | 0.0 | 1.7 | 0.00 | 0.00 | 0.00 | 1 | 1011.2 |
| 20260502091335 | 42 | 277 | 0.0 | 1.7 | 0.00 | 0.00 | 0.00 | 1 | 1011.1 |
| 20260502091237 | 42 | 277 | 0.9 | 1.7 | 0.00 | 0.00 | 0.00 | 1 | 1011.1 |
| 20260502091143 | 42 | 277 | 0.9 | 1.7 | 0.00 | 0.00 | 0.00 | 1 | 1011.1 |
| 20260502091057 | 42 | 277 | 0.0 | 1.7 | 0.00 | 0.00 | 0.00 | 1 | 1011.1 |
| 20260502090927 | 42 | 277 | 0.0 | 0.0 | 0.00 | 0.00 | 0.00 | 1 | 1011.1 |
| 20260502090827 | 42 | 277 | 0.0 | 0.0 | 0.00 | 0.00 | 0.00 | 1 | 1011.1 |
| 20260502090630 | 42 | 277 | 0.0 | 0.0 | 0.00 | 0.00 | 0.00 | 1 | 1011.2 |
| 20260502090553 | 42 | 277 | 0.0 | 0.0 | 0.00 | 0.00 | 0.00 | 1 | 1011.2 |
| 20260502090436 | 42 | 277 | 0.0 | 0.0 | 0.00 | 0.00 | 0.00 | 1 | 1011.2 |
| 20260502090358 | 42 | 277 | 0.0 | 0.0 | 0.00 | 0.00 | 0.00 | 1 | 1011.2 |
| 20260502090241 | 42 | 277 | 0.0 | 0.0 | 0.00 | 0.00 | 0.00 | 1 | 1011.2 |
| 20260502090203 | 42 | 277 | 0.0 | 0.0 | 0.00 | 0.00 | 0.00 | 1 | 1011.2 |
| 20260502071409 | 42 | 313 | 0.0 | 2.6 | 0.00 | 0.00 | 0.00 | 1 | 1011.4 |
| 20260502071330 | 42 | 313 | 0.0 | 2.6 | 0.00 | 0.00 | 0.00 | 1 | 1011.5 |
| 20260502071134 | 42 | 313 | 0.9 | 2.6 | 0.00 | 0.00 | 0.00 | 1 | 1011.5 |
| 20260502071039 | 42 | 313 | 1.7 | 2.6 | 0.00 | 0.00 | 0.00 | 1 | 1011.5 |
| 20260502070943 | 42 | 313 | 1.7 | 2.6 | 0.00 | 0.00 | 0.00 | 1 | 1011.5 |
| 20260502070844 | 42 | 297 | 0.9 | 2.6 | 0.00 | 0.00 | 0.00 | 1 | 1011.5 |
| 20260502070746 | 42 | 248 | 0.0 | 0.0 | 0.00 | 0.00 | 0.00 | 1 | 1011.5 |
| 20260502070647 | 42 | 248 | 0.0 | 0.0 | 0.00 | 0.00 | 0.00 | 1 | 1011.5 |
| 20260502070608 | 42 | 248 | 0.0 | 0.0 | 0.00 | 0.00 | 0.00 | 1 | 1011.5 |
| 20260502070513 | 42 | 248 | 0.0 | 0.0 | 0.00 | 0.00 | 0.00 | 1 | 1011.5 |
| 20260502070434 | 42 | 248 | 0.0 | 0.0 | 0.00 | 0.00 | 0.00 | 1 | 1011.6 |
| 20260502070304 | 42 | 248 | 0.0 | 0.0 | 0.00 | 0.00 | 0.00 | 1 | 1011.5 |
| 20260502070216 | 42 | 248 | 0.0 | 0.0 | 0.00 | 0.00 | 0.00 | 1 | 1011.5 |
| 20260502070046 | 42 | 248 | 0.0 | 0.0 | 0.00 | 0.00 | 0.00 | 1 | 1011.5 |
| 20260502065931 | 42 | 248 | 0.0 | 0.0 | 0.00 | 0.00 | 0.00 | 1 | 1011.4 |
| 20260502065834 | 42 | 248 | 0.0 | 0.0 | 0.00 | 0.00 | 0.00 | 1 | 1011.5 |
| 20260502065757 | 42 | 248 | 0.0 | 0.0 | 0.00 | 0.00 | 0.00 | 1 | 1011.5 |
| 20260502065718 | 42 | 248 | 0.0 | 0.0 | 0.00 | 0.00 | 0.00 | 1 | 1011.4 |
| 20260502065602 | 42 | 248 | 0.0 | 0.0 | 0.00 | 0.00 | 0.00 | 1 | 1011.4 |
| 20260502065523 | 42 | 248 | 0.0 | 0.0 | 0.00 | 0.00 | 0.00 | 1 | 1011.4 |
| 20260502065327 | 42 | 248 | 0.0 | 0.0 | 0.00 | 0.00 | 0.00 | 1 | 1011.4 |
| 20260502065228 | 42 | 248 | 0.0 | 0.0 | 0.00 | 0.00 | 0.00 | 1 | 1011.4 |
| 20260502065121 | 42 | 248 | 0.0 | 0.0 | 0.00 | 0.00 | 0.00 | 1 | 1011.4 |
| 20260502065048 | 42 | 248 | 0.0 | 0.0 | 0.00 | 0.00 | 0.00 | 1 | 1011.4 |
| 20260502065002 | 42 | 248 | 0.0 | 0.0 | 0.00 | 0.00 | 0.00 | 1 | 1011.4 |
| 20260502064832 | 42 | 248 | 0.0 | 0.0 | 0.00 | 0.00 | 0.00 | 1 | 1011.4 |
| 20260502064731 | 42 | 248 | 0.0 | 0.0 | 0.00 | 0.00 | 0.00 | 1 | 1011.5 |
| 20260502064534 | 42 | 248 | 0.0 | 0.0 | 0.00 | 0.00 | 0.00 | 1 | 1011.4 |
| 20260502064456 | 42 | 248 | 0.0 | 0.0 | 0.00 | 0.00 | 0.00 | 1 | 1011.4 |
| 20260502064340 | 42 | 248 | 0.0 | 0.0 | 0.00 | 0.00 | 0.00 | 1 | 1011.4 |
| 20260502064301 | 42 | 248 | 0.0 | 0.0 | 0.00 | 0.00 | 0.00 | 1 | 1011.4 |
| 20260502064023 | 42 | 248 | 0.0 | 0.0 | 0.00 | 0.00 | 0.00 | 1 | 1011.5 |
| 20260502063950 | 42 | 248 | 0.0 | 0.0 | 0.00 | 0.00 | 0.00 | 1 | 1011.5 |
| 20260502063856 | 42 | 248 | 0.0 | 0.0 | 0.00 | 0.00 | 0.00 | 1 | 1011.4 |
| 20260502063756 | 42 | 248 | 0.0 | 0.0 | 0.00 | 0.00 | 0.00 | 1 | 1011.4 |
| 20260502063626 | 42 | 248 | 0.0 | 0.0 | 0.00 | 0.00 | 0.00 | 1 | 1011.4 |
| 20260502063520 | 42 | 248 | 0.0 | 0.0 | 0.00 | 0.00 | 0.00 | 1 | 1011.3 |
| 20260502063349 | 42 | 248 | 0.0 | 0.0 | 0.00 | 0.00 | 0.00 | 1 | 1011.4 |
| 20260502063250 | 42 | 248 | 0.0 | 0.0 | 0.00 | 0.00 | 0.00 | 1 | 1011.4 |
| 20260502063205 | 42 | 248 | 0.0 | 0.0 | 0.00 | 0.00 | 0.00 | 1 | 1011.4 |
| 20260502063035 | 42 | 248 | 0.0 | 0.0 | 0.00 | 0.00 | 0.00 | 1 | 1011.4 |
| 20260502062935 | 42 | 248 | 0.0 | 0.0 | 0.00 | 0.00 | 0.00 | 1 | 1011.4 |
| 20260502062738 | 42 | 248 | 0.0 | 0.0 | 0.00 | 0.00 | 0.00 | 1 | 1011.4 |
| 20260502062644 | 42 | 248 | 0.0 | 0.0 | 0.00 | 0.00 | 0.00 | 1 | 1011.4 |
| 20260502062549 | 42 | 248 | 0.0 | 0.0 | 0.00 | 0.00 | 0.00 | 1 | 1011.4 |
| 20260502062510 | 42 | 248 | 0.0 | 0.0 | 0.00 | 0.00 | 0.00 | 1 | 1011.4 |
| 20260502062319 | 42 | 248 | 0.0 | 0.0 | 0.00 | 0.00 | 0.00 | 1 | 1011.4 |
| 20260502062234 | 42 | 248 | 0.0 | 0.0 | 0.00 | 0.00 | 0.00 | 1 | 1011.4 |
| 20260502062103 | 42 | 248 | 0.0 | 0.0 | 0.00 | 0.00 | 0.00 | 1 | 1011.4 |
| 20260502062014 | 42 | 248 | 0.0 | 0.0 | 0.00 | 0.00 | 0.00 | 1 | 1011.4 |
| 20260502061838 | 42 | 248 | 0.0 | 0.0 | 0.00 | 0.00 | 0.00 | 1 | 1011.5 |
| 20260502061739 | 42 | 248 | 0.0 | 0.0 | 0.00 | 0.00 | 0.00 | 1 | 1011.4 |
| 20260502061623 | 42 | 248 | 0.0 | 0.0 | 0.00 | 0.00 | 0.00 | 1 | 1011.5 |
| 20260502061544 | 42 | 248 | 0.0 | 0.0 | 0.00 | 0.00 | 0.00 | 1 | 1011.5 |
| 20260502061419 | 42 | 248 | 0.0 | 0.0 | 0.00 | 0.00 | 0.00 | 1 | 1011.4 |
| 20260502061125 | 42 | 248 | 0.0 | 0.0 | 0.00 | 0.00 | 0.00 | 1 | 1011.4 |
| 20260502061041 | 42 | 248 | 0.0 | 0.0 | 0.00 | 0.00 | 0.00 | 1 | 1011.4 |
| 20260502060942 | 42 | 248 | 0.0 | 0.0 | 0.00 | 0.00 | 0.00 | 1 | 1011.4 |
| 20260502060828 | 42 | 248 | 0.0 | 0.0 | 0.00 | 0.00 | 0.00 | 1 | 1011.4 |
| 20260502060748 | 42 | 248 | 0.0 | 0.0 | 0.00 | 0.00 | 0.00 | 1 | 1011.4 |
| 20260502060632 | 42 | 248 | 0.0 | 0.0 | 0.00 | 0.00 | 0.00 | 1 | 1011.4 |
| 20260502060555 | 42 | 248 | 0.0 | 0.0 | 0.00 | 0.00 | 0.00 | 1 | 1011.4 |
| 20260502060517 | 42 | 248 | 0.0 | 0.0 | 0.00 | 0.00 | 0.00 | 1 | 1011.4 |
| 20260502060324 | 42 | 248 | 0.0 | 0.0 | 0.00 | 0.00 | 0.00 | 1 | 1011.4 |
| 20260502060246 | 42 | 248 | 0.0 | 0.0 | 0.00 | 0.00 | 0.00 | 1 | 1011.4 |
| 20260502060131 | 42 | 248 | 0.0 | 0.0 | 0.00 | 0.00 | 0.00 | 1 | 1011.5 |
| 20260502060053 | 42 | 248 | 0.0 | 0.0 | 0.00 | 0.00 | 0.00 | 1 | 1011.5 |
| 20260502060015 | 42 | 248 | 0.0 | 0.0 | 0.00 | 0.00 | 0.00 | 1 | 1011.4 |
| 20260502055837 | 42 | 248 | 0.0 | 0.0 | 0.00 | 0.00 | 0.00 | 1 | 1011.5 |
| 20260502055759 | 42 | 248 | 0.0 | 0.0 | 0.00 | 0.00 | 0.00 | 1 | 1011.5 |
| 20260502055714 | 42 | 248 | 0.0 | 0.0 | 0.00 | 0.00 | 0.00 | 1 | 1011.5 |
| 20260502055544 | 42 | 248 | 0.0 | 0.0 | 0.00 | 0.00 | 0.00 | 1 | 1011.4 |
| 20260502055444 | 42 | 248 | 0.0 | 0.0 | 0.00 | 0.00 | 0.00 | 1 | 1011.4 |
| 20260502055331 | 42 | 248 | 0.0 | 0.0 | 0.00 | 0.00 | 0.00 | 1 | 1011.5 |
| 20260502055253 | 42 | 248 | 0.0 | 0.0 | 0.00 | 0.00 | 0.00 | 1 | 1011.5 |
| 20260502055215 | 42 | 248 | 0.0 | 0.0 | 0.00 | 0.00 | 0.00 | 1 | 1011.5 |
| 20260502055039 | 42 | 248 | 0.0 | 0.0 | 0.00 | 0.00 | 0.00 | 1 | 1011.5 |
| 20260502054940 | 42 | 248 | 0.0 | 0.0 | 0.00 | 0.00 | 0.00 | 1 | 1011.4 |
| 20260502054824 | 42 | 248 | 0.0 | 0.0 | 0.00 | 0.00 | 0.00 | 1 | 1011.5 |
| 20260502054746 | 42 | 248 | 0.0 | 0.0 | 0.00 | 0.00 | 0.00 | 1 | 1011.5 |
| 20260502054642 | 42 | 248 | 0.0 | 0.0 | 0.00 | 0.00 | 0.00 | 1 | 1011.5 |
| 20260502054524 | 42 | 248 | 0.0 | 0.0 | 0.00 | 0.00 | 0.00 | 1 | 1011.4 |
| 20260502054451 | 42 | 248 | 0.0 | 0.0 | 0.00 | 0.00 | 0.00 | 1 | 1011.4 |
| 20260502054412 | 42 | 248 | 0.0 | 0.0 | 0.00 | 0.00 | 0.00 | 1 | 1011.5 |
| 20260502054220 | 42 | 248 | 0.0 | 0.0 | 0.00 | 0.00 | 0.00 | 1 | 1011.4 |
| 20260502054135 | 42 | 248 | 0.0 | 0.0 | 0.00 | 0.00 | 0.00 | 1 | 1011.4 |
| 20260502053924 | 42 | 248 | 0.0 | 0.0 | 0.00 | 0.00 | 0.00 | 1 | 1011.5 |
| 20260502053840 | 42 | 248 | 0.0 | 0.0 | 0.00 | 0.00 | 0.00 | 1 | 1011.5 |
| 20260502053709 | 42 | 248 | 0.0 | 0.0 | 0.00 | 0.00 | 0.00 | 1 | 1011.4 |
| 20260502053631 | 42 | 248 | 0.0 | 0.0 | 0.00 | 0.00 | 0.00 | 1 | 1011.4 |
| 20260502053433 | 42 | 248 | 0.0 | 0.0 | 0.00 | 0.00 | 0.00 | 1 | 1011.4 |
| 20260502053355 | 42 | 248 | 0.0 | 0.0 | 0.00 | 0.00 | 0.00 | 1 | 1011.4 |
| 20260502053223 | 42 | 248 | 0.0 | 0.0 | 0.00 | 0.00 | 0.00 | 1 | 1011.4 |
| 20260502053139 | 42 | 248 | 0.0 | 0.0 | 0.00 | 0.00 | 0.00 | 1 | 1011.4 |
| 20260502052928 | 42 | 248 | 0.0 | 0.0 | 0.00 | 0.00 | 0.00 | 1 | 1011.5 |
| 20260502052842 | 42 | 248 | 0.0 | 0.0 | 0.00 | 0.00 | 0.00 | 1 | 1011.5 |
| 20260502052743 | 42 | 248 | 0.0 | 0.0 | 0.00 | 0.00 | 0.00 | 1 | 1011.5 |
| 20260502052637 | 42 | 248 | 0.0 | 0.0 | 0.00 | 0.00 | 0.00 | 1 | 1011.5 |
| 20260502052558 | 42 | 248 | 0.0 | 0.0 | 0.00 | 0.00 | 0.00 | 1 | 1011.6 |
| 20260502052407 | 42 | 248 | 0.0 | 0.0 | 0.00 | 0.00 | 0.00 | 1 | 1011.6 |
| 20260502052223 | 42 | 248 | 0.0 | 0.9 | 0.00 | 0.00 | 0.00 | 1 | 1011.6 |
| 20260502052125 | 42 | 248 | 0.0 | 0.9 | 0.00 | 0.00 | 0.00 | 1 | 1011.6 |
| 20260502052048 | 42 | 248 | 0.0 | 0.9 | 0.00 | 0.00 | 0.00 | 1 | 1011.6 |
| 20260502052008 | 42 | 248 | 0.0 | 0.9 | 0.00 | 0.00 | 0.00 | 1 | 1011.6 |
| 20260502051912 | 42 | 248 | 0.0 | 0.9 | 0.00 | 0.00 | 0.00 | 1 | 1011.6 |
| 20260502051833 | 42 | 248 | 0.0 | 0.9 | 0.00 | 0.00 | 0.00 | 1 | 1011.6 |
| 20260502051637 | 42 | 248 | 0.0 | 1.7 | 0.00 | 0.00 | 0.00 | 1 | 1011.6 |
| 20260502051538 | 42 | 248 | 0.0 | 1.7 | 0.00 | 0.00 | 0.00 | 1 | 1011.6 |
| 20260502051424 | 42 | 248 | 0.0 | 1.7 | 0.00 | 0.00 | 0.00 | 1 | 1011.6 |
| 20260502051349 | 42 | 248 | 0.0 | 1.7 | 0.00 | 0.00 | 0.00 | 1 | 1011.6 |
| 20260502051212 | 42 | 248 | 0.0 | 1.7 | 0.00 | 0.00 | 0.00 | 1 | 1011.7 |
| 20260502051134 | 42 | 248 | 0.0 | 1.7 | 0.00 | 0.00 | 0.00 | 1 | 1011.7 |
| 20260502050944 | 42 | 248 | 0.9 | 1.7 | 0.00 | 0.00 | 0.00 | 1 | 1011.6 |
| 20260502050838 | 42 | 262 | 0.9 | 2.6 | 0.00 | 0.00 | 0.00 | 1 | 1011.7 |
| 20260502050723 | 42 | 305 | 0.9 | 2.6 | 0.00 | 0.00 | 0.00 | 1 | 1011.7 |
| 20260502050645 | 42 | 323 | 0.0 | 2.6 | 0.00 | 0.00 | 0.00 | 1 | 1011.6 |
| 20260502050402 | 42 | 323 | 0.0 | 2.6 | 0.00 | 0.00 | 0.00 | 1 | 1011.6 |
| 20260502050316 | 42 | 323 | 0.0 | 2.6 | 0.00 | 0.00 | 0.00 | 1 | 1011.6 |
| 20260502050129 | 42 | 323 | 1.7 | 2.6 | 0.00 | 0.00 | 0.00 | 1 | 1011.6 |
| 20260502050041 | 42 | 323 | 0.9 | 2.6 | 0.00 | 0.00 | 0.00 | 1 | 1011.6 |
| 20260502045906 | 42 | 325 | 0.0 | 1.7 | 0.00 | 0.00 | 0.00 | 1 | 1011.6 |
| 20260502045827 | 42 | 325 | 0.0 | 1.7 | 0.00 | 0.00 | 0.00 | 1 | 1011.5 |
| 20260502045629 | 42 | 325 | 0.9 | 1.7 | 0.00 | 0.00 | 0.00 | 1 | 1011.6 |
| 20260502045552 | 42 | 325 | 0.0 | 1.7 | 0.00 | 0.00 | 0.00 | 1 | 1011.6 |
| 20260502045457 | 42 | 328 | 0.9 | 1.7 | 0.00 | 0.00 | 0.00 | 1 | 1011.5 |
| 20260502045337 | 42 | 328 | 0.9 | 1.7 | 0.00 | 0.00 | 0.00 | 1 | 1011.5 |
| 20260502045240 | 42 | 328 | 0.9 | 1.7 | 0.00 | 0.00 | 0.00 | 1 | 1011.5 |
| 20260502045142 | 42 | 328 | 0.0 | 0.9 | 0.00 | 0.00 | 0.00 | 1 | 1011.5 |
| 20260502045107 | 43 | 328 | 0.0 | 0.0 | 0.00 | 0.00 | 0.00 | 1 | 1011.4 |
| 20260502044951 | 43 | 328 | 0.0 | 0.0 | 0.00 | 0.00 | 0.00 | 1 | 1011.4 |
| 20260502044912 | 43 | 328 | 0.0 | 0.0 | 0.00 | 0.00 | 0.00 | 1 | 1011.5 |
| 20260502044648 | 42 | 328 | 0.0 | 0.0 | 0.00 | 0.00 | 0.00 | 1 | 1011.5 |
| 20260502044523 | 42 | 328 | 0.0 | 0.0 | 0.00 | 0.00 | 0.00 | 1 | 1011.5 |
| 20260502044427 | 42 | 328 | 0.0 | 0.9 | 0.00 | 0.00 | 0.00 | 1 | 1011.5 |
| 20260502044348 | 42 | 328 | 0.0 | 1.7 | 0.00 | 0.00 | 0.00 | 1 | 1011.5 |
| 20260502044129 | 42 | 328 | 0.0 | 1.7 | 0.00 | 0.00 | 0.00 | 1 | 1011.5 |
| 20260502044030 | 42 | 328 | 0.0 | 1.7 | 0.00 | 0.00 | 0.00 | 1 | 1011.5 |
| 20260502043937 | 42 | 328 | 0.0 | 1.7 | 0.00 | 0.00 | 0.00 | 1 | 1011.5 |
| 20260502043821 | 42 | 328 | 0.0 | 1.7 | 0.00 | 0.00 | 0.00 | 1 | 1011.5 |
| 20260502043625 | 42 | 328 | 0.9 | 1.7 | 0.00 | 0.00 | 0.00 | 1 | 1011.5 |
| 20260502043548 | 42 | 328 | 0.0 | 1.7 | 0.00 | 0.00 | 0.00 | 1 | 1011.5 |
| 20260502043432 | 42 | 328 | 0.9 | 1.7 | 0.00 | 0.00 | 0.00 | 1 | 1011.4 |
| 20260502043354 | 42 | 328 | 0.9 | 1.7 | 0.00 | 0.00 | 0.00 | 1 | 1011.5 |
| 20260502043136 | 42 | 329 | 0.9 | 1.7 | 0.00 | 0.00 | 0.00 | 1 | 1011.5 |
| 20260502043058 | 42 | 331 | 0.9 | 1.7 | 0.00 | 0.00 | 0.00 | 1 | 1011.5 |
| 20260502042924 | 42 | 342 | 0.9 | 1.7 | 0.00 | 0.00 | 0.00 | 1 | 1011.4 |
| 20260502042847 | 42 | 342 | 0.9 | 1.7 | 0.00 | 0.00 | 0.00 | 1 | 1011.4 |
| 20260502042742 | 42 | 342 | 0.9 | 1.7 | 0.00 | 0.00 | 0.00 | 1 | 1011.4 |
| 20260502042636 | 42 | 342 | 0.9 | 1.7 | 0.00 | 0.00 | 0.00 | 1 | 1011.6 |
| 20260502042538 | 42 | 342 | 0.9 | 1.7 | 0.00 | 0.00 | 0.00 | 1 | 1011.6 |
| 20260502042422 | 42 | 342 | 0.0 | 0.9 | 0.00 | 0.00 | 0.00 | 1 | 1011.6 |
| 20260502042345 | 42 | 342 | 0.0 | 0.9 | 0.00 | 0.00 | 0.00 | 1 | 1011.6 |
| 20260502042300 | 42 | 342 | 0.0 | 0.9 | 0.00 | 0.00 | 0.00 | 1 | 1011.6 |
| 20260502042124 | 42 | 342 | 0.0 | 0.9 | 0.00 | 0.00 | 0.00 | 1 | 1011.4 |
| 20260502041928 | 42 | 342 | 0.0 | 0.9 | 0.00 | 0.00 | 0.00 | 1 | 1011.5 |
| 20260502041829 | 42 | 342 | 0.0 | 0.9 | 0.00 | 0.00 | 0.00 | 1 | 1011.4 |
| 20260502041733 | 42 | 342 | 0.9 | 0.9 | 0.00 | 0.00 | 0.00 | 1 | 1011.4 |
| 20260502041655 | 42 | 342 | 0.9 | 0.9 | 0.00 | 0.00 | 0.00 | 1 | 1011.4 |
| 20260502041616 | 42 | 342 | 0.9 | 0.9 | 0.00 | 0.00 | 0.00 | 1 | 1011.4 |
| 20260502041418 | 42 | 342 | 0.9 | 0.9 | 0.00 | 0.00 | 0.00 | 1 | 1011.4 |
| 20260502041352 | 42 | 342 | 0.0 | 0.9 | 0.00 | 0.00 | 0.00 | 1 | 1011.4 |
| 20260502041235 | 42 | 342 | 0.0 | 0.0 | 0.00 | 0.00 | 0.00 | 1 | 1011.6 |
| 20260502041200 | 42 | 342 | 0.0 | 0.0 | 0.00 | 0.00 | 0.00 | 1 | 1011.5 |
| 20260502041009 | 42 | 342 | 0.0 | 0.0 | 0.00 | 0.00 | 0.00 | 1 | 1011.5 |
| 20260502040923 | 42 | 342 | 0.0 | 0.0 | 0.00 | 0.00 | 0.00 | 1 | 1011.5 |
| 20260502040733 | 42 | 342 | 0.0 | 0.0 | 0.00 | 0.00 | 0.00 | 1 | 1011.4 |
| 20260502040627 | 42 | 342 | 0.0 | 0.9 | 0.00 | 0.00 | 0.00 | 1 | 1011.4 |
| 20260502040559 | 42 | 342 | 0.0 | 0.9 | 0.00 | 0.00 | 0.00 | 1 | 1011.4 |
| 20260502040504 | 42 | 342 | 0.0 | 1.7 | 0.00 | 0.00 | 0.00 | 1 | 1011.4 |
| 20260502040424 | 42 | 342 | 0.0 | 1.7 | 0.00 | 0.00 | 0.00 | 1 | 1011.4 |
| 20260502040135 | 42 | 342 | 0.0 | 1.7 | 0.00 | 0.00 | 0.00 | 1 | 1011.4 |
| 20260502040042 | 42 | 342 | 0.0 | 1.7 | 0.00 | 0.00 | 0.00 | 1 | 1011.4 |
| 20260502035924 | 42 | 342 | 0.0 | 1.7 | 0.00 | 0.00 | 0.00 | 1 | 1011.4 |
| 20260502035845 | 42 | 342 | 0.0 | 1.7 | 0.00 | 0.00 | 0.00 | 1 | 1011.4 |
| 20260502035627 | 42 | 342 | 0.9 | 2.6 | 0.00 | 0.00 | 0.00 | 1 | 1011.4 |
| 20260502035550 | 42 | 342 | 0.9 | 2.6 | 0.00 | 0.00 | 0.00 | 1 | 1011.4 |
| 20260502035433 | 42 | 342 | 0.0 | 2.6 | 0.00 | 0.00 | 0.00 | 1 | 1011.4 |
| 20260502035333 | 42 | 342 | 0.0 | 2.6 | 0.00 | 0.00 | 0.00 | 1 | 1011.4 |
| 20260502035258 | 42 | 342 | 0.0 | 3.5 | 0.00 | 0.00 | 0.00 | 1 | 1011.4 |
| 20260502035124 | 42 | 342 | 0.9 | 3.5 | 0.00 | 0.00 | 0.00 | 1 | 1011.4 |
| 20260502035038 | 42 | 342 | 0.9 | 3.5 | 0.00 | 0.00 | 0.00 | 1 | 1011.4 |
| 20260502034940 | 42 | 342 | 1.7 | 3.5 | 0.00 | 0.00 | 0.00 | 1 | 1011.4 |
| 20260502034823 | 42 | 338 | 2.6 | 3.5 | 0.00 | 0.00 | 0.00 | 1 | 1011.3 |
| 20260502034745 | 42 | 338 | 2.6 | 3.5 | 0.00 | 0.00 | 0.00 | 1 | 1011.3 |
| 20260502034639 | 42 | 338 | 2.6 | 3.5 | 0.00 | 0.00 | 0.00 | 1 | 1011.3 |
| 20260502034524 | 42 | 338 | 2.6 | 3.5 | 0.00 | 0.00 | 0.00 | 1 | 1011.3 |
| 20260502034448 | 42 | 340 | 1.7 | 3.5 | 0.00 | 0.00 | 0.00 | 1 | 1011.3 |
| 20260502034409 | 42 | 360 | 1.7 | 2.6 | 0.00 | 0.00 | 0.00 | 1 | 1011.3 |
| 20260502034235 | 42 | 360 | 1.7 | 2.6 | 0.00 | 0.00 | 0.00 | 1 | 1011.4 |
| 20260502034156 | 42 | 360 | 1.7 | 2.6 | 0.00 | 0.00 | 0.00 | 1 | 1011.3 |
| 20260502034038 | 42 | 360 | 0.9 | 2.6 | 0.00 | 0.00 | 0.00 | 1 | 1011.4 |
| 20260502033948 | 42 | 360 | 0.9 | 1.7 | 0.00 | 0.00 | 0.00 | 1 | 1011.4 |
| 20260502033910 | 42 | 360 | 0.9 | 1.7 | 0.00 | 0.00 | 0.00 | 1 | 1011.4 |
| 20260502033710 | 42 | 360 | 0.9 | 1.7 | 0.00 | 0.00 | 0.00 | 1 | 1011.3 |
| 20260502033542 | 42 | 360 | 0.9 | 1.7 | 0.00 | 0.00 | 0.00 | 1 | 1011.3 |
| 20260502033425 | 42 | 360 | 0.9 | 1.7 | 0.00 | 0.00 | 0.00 | 1 | 1011.3 |
| 20260502033348 | 42 | 360 | 0.9 | 1.7 | 0.00 | 0.00 | 0.00 | 1 | 1011.3 |
| 20260502033218 | 42 | 360 | 0.0 | 1.7 | 0.00 | 0.00 | 0.00 | 1 | 1011.3 |
| 20260502033137 | 42 | 360 | 0.9 | 1.7 | 0.00 | 0.00 | 0.00 | 1 | 1011.3 |
| 20260502032923 | 42 | 360 | 0.9 | 1.7 | 0.00 | 0.00 | 0.00 | 1 | 1011.4 |
| 20260502032845 | 42 | 360 | 0.0 | 0.9 | 0.00 | 0.00 | 0.00 | 1 | 1011.4 |
| 20260502032750 | 42 | 360 | 0.0 | 0.0 | 0.00 | 0.00 | 0.00 | 1 | 1011.3 |
| 20260502032650 | 42 | 360 | 0.0 | 0.0 | 0.00 | 0.00 | 0.00 | 1 | 1011.4 |
| 20260502032458 | 42 | 360 | 0.0 | 0.0 | 0.00 | 0.00 | 0.00 | 1 | 1011.4 |
| 20260502032353 | 42 | 360 | 0.0 | 0.0 | 0.00 | 0.00 | 0.00 | 1 | 1011.4 |
| 20260502032314 | 42 | 360 | 0.0 | 0.0 | 0.00 | 0.00 | 0.00 | 1 | 1011.4 |
| 20260502032126 | 42 | 360 | 0.0 | 0.0 | 0.00 | 0.00 | 0.00 | 1 | 1011.4 |
| 20260502032040 | 42 | 360 | 0.0 | 0.0 | 0.00 | 0.00 | 0.00 | 1 | 1011.4 |
| 20260502031940 | 42 | 360 | 0.0 | 0.0 | 0.00 | 0.00 | 0.00 | 1 | 1011.4 |
| 20260502031848 | 42 | 360 | 0.0 | 0.0 | 0.00 | 0.00 | 0.00 | 1 | 1011.4 |
| 20260502031809 | 42 | 360 | 0.0 | 0.0 | 0.00 | 0.00 | 0.00 | 1 | 1011.4 |
| 20260502031628 | 42 | 360 | 0.0 | 0.9 | 0.00 | 0.00 | 0.00 | 1 | 1011.4 |
| 20260502031521 | 42 | 360 | 0.0 | 0.9 | 0.00 | 0.00 | 0.00 | 1 | 1011.4 |
| 20260502031332 | 42 | 360 | 0.0 | 0.9 | 0.00 | 0.00 | 0.00 | 1 | 1011.4 |
| 20260502031245 | 42 | 360 | 0.0 | 0.9 | 0.00 | 0.00 | 0.00 | 1 | 1011.4 |
| 20260502031054 | 42 | 360 | 0.0 | 0.9 | 0.00 | 0.00 | 0.00 | 1 | 1011.4 |
| 20260502030955 | 42 | 360 | 0.0 | 0.9 | 0.00 | 0.00 | 0.00 | 1 | 1011.4 |
| 20260502030918 | 42 | 360 | 0.0 | 0.9 | 0.00 | 0.00 | 0.00 | 1 | 1011.4 |
| 20260502030712 | 42 | 360 | 0.0 | 0.9 | 0.00 | 0.00 | 0.00 | 1 | 1011.4 |
| 20260502030628 | 42 | 360 | 0.0 | 0.9 | 0.00 | 0.00 | 0.00 | 1 | 1011.4 |
| 20260502030523 | 42 | 360 | 0.0 | 0.0 | 0.00 | 0.00 | 0.00 | 1 | 1011.5 |
| 20260502030444 | 42 | 360 | 0.0 | 0.0 | 0.00 | 0.00 | 0.00 | 1 | 1011.5 |
| 20260502030314 | 42 | 360 | 0.0 | 0.0 | 0.00 | 0.00 | 0.00 | 1 | 1011.4 |
| 20260502030146 | 42 | 360 | 0.0 | 0.0 | 0.00 | 0.00 | 0.00 | 1 | 1011.4 |
| 20260502030107 | 42 | 360 | 0.0 | 0.0 | 0.00 | 0.00 | 0.00 | 1 | 1011.4 |
| 20260502030007 | 42 | 360 | 0.0 | 0.0 | 0.00 | 0.00 | 0.00 | 1 | 1011.4 |
| 20260502025923 | 42 | 360 | 0.0 | 0.0 | 0.00 | 0.00 | 0.00 | 1 | 1011.4 |
| 20260502025823 | 42 | 360 | 0.0 | 0.0 | 0.00 | 0.00 | 0.00 | 1 | 1011.4 |
| 20260502025653 | 42 | 360 | 0.0 | 0.0 | 0.00 | 0.00 | 0.00 | 1 | 1011.4 |
| 20260502025556 | 42 | 360 | 0.0 | 0.0 | 0.00 | 0.00 | 0.00 | 1 | 1011.4 |
| 20260502025513 | 42 | 360 | 0.0 | 0.0 | 0.00 | 0.00 | 0.00 | 1 | 1011.5 |
| 20260502025300 | 42 | 360 | 0.0 | 0.0 | 0.00 | 0.00 | 0.00 | 1 | 1011.5 |
| 20260502025221 | 42 | 360 | 0.0 | 0.0 | 0.00 | 0.00 | 0.00 | 1 | 1011.5 |
| 20260502025137 | 42 | 360 | 0.0 | 0.0 | 0.00 | 0.00 | 0.00 | 1 | 1011.5 |
| 20260502025038 | 42 | 360 | 0.0 | 0.0 | 0.00 | 0.00 | 0.00 | 1 | 1011.5 |
| 20260502024938 | 42 | 360 | 0.0 | 0.0 | 0.00 | 0.00 | 0.00 | 1 | 1011.5 |
| 20260502024744 | 42 | 360 | 0.0 | 0.0 | 0.00 | 0.00 | 0.00 | 1 | 1011.5 |
| 20260502024704 | 42 | 360 | 0.0 | 0.0 | 0.00 | 0.00 | 0.00 | 1 | 1011.5 |
| 20260502024609 | 42 | 360 | 0.0 | 0.0 | 0.00 | 0.00 | 0.00 | 1 | 1011.5 |
| 20260502024530 | 42 | 360 | 0.0 | 0.9 | 0.00 | 0.00 | 0.00 | 1 | 1011.5 |
| 20260502024342 | 42 | 360 | 0.0 | 0.9 | 0.00 | 0.00 | 0.00 | 1 | 1011.5 |
| 20260502024238 | 42 | 360 | 0.0 | 0.9 | 0.00 | 0.00 | 0.00 | 1 | 1011.5 |
| 20260502024122 | 42 | 360 | 0.0 | 0.9 | 0.00 | 0.00 | 0.00 | 1 | 1011.4 |
| 20260502024044 | 42 | 360 | 0.0 | 0.9 | 0.00 | 0.00 | 0.00 | 1 | 1011.4 |
| 20260502024005 | 42 | 360 | 0.0 | 0.9 | 0.00 | 0.00 | 0.00 | 1 | 1011.5 |
| 20260502023919 | 42 | 360 | 0.0 | 0.9 | 0.00 | 0.00 | 0.00 | 1 | 1011.4 |
| 20260502023841 | 42 | 360 | 0.0 | 1.7 | 0.00 | 0.00 | 0.00 | 1 | 1011.4 |
| 20260502023711 | 42 | 360 | 0.0 | 1.7 | 0.00 | 0.00 | 0.00 | 1 | 1011.4 |
| 20260502023626 | 42 | 360 | 0.0 | 1.7 | 0.00 | 0.00 | 0.00 | 1 | 1011.4 |
| 20260502023436 | 42 | 360 | 0.0 | 2.6 | 0.00 | 0.00 | 0.00 | 1 | 1011.5 |
| 20260502023352 | 42 | 360 | 0.0 | 2.6 | 0.00 | 0.00 | 0.00 | 1 | 1011.5 |
| 20260502023225 | 42 | 360 | 0.9 | 2.6 | 0.00 | 0.00 | 0.00 | 1 | 1011.4 |
| 20260502023126 | 42 | 360 | 0.9 | 2.6 | 0.00 | 0.00 | 0.00 | 1 | 1011.4 |
| 20260502022930 | 42 | 360 | 1.7 | 2.6 | 0.00 | 0.00 | 0.00 | 1 | 1011.4 |
| 20260502022852 | 42 | 360 | 1.7 | 2.6 | 0.00 | 0.00 | 0.00 | 1 | 1011.4 |
| 20260502022736 | 42 | 360 | 0.9 | 2.6 | 0.00 | 0.00 | 0.00 | 1 | 1011.4 |
| 20260502022657 | 42 | 360 | 0.0 | 1.7 | 0.00 | 0.00 | 0.00 | 1 | 1011.4 |
| 20260502022527 | 42 | 360 | 0.0 | 0.0 | 0.00 | 0.00 | 0.00 | 1 | 1011.5 |
| 20260502022420 | 42 | 360 | 0.0 | 0.0 | 0.00 | 0.00 | 0.00 | 1 | 1011.4 |
| 20260502022237 | 42 | 360 | 0.0 | 0.0 | 0.00 | 0.00 | 0.00 | 1 | 1011.4 |
| 20260502022136 | 42 | 360 | 0.0 | 0.0 | 0.00 | 0.00 | 0.00 | 1 | 1011.4 |
| 20260502022059 | 42 | 360 | 0.0 | 0.0 | 0.00 | 0.00 | 0.00 | 1 | 1011.4 |
| 20260502021942 | 42 | 360 | 0.0 | 0.0 | 0.00 | 0.00 | 0.00 | 1 | 1011.5 |
| 20260502021905 | 42 | 360 | 0.0 | 0.0 | 0.00 | 0.00 | 0.00 | 1 | 1011.5 |
| 20260502021818 | 42 | 360 | 0.0 | 0.0 | 0.00 | 0.00 | 0.00 | 1 | 1011.5 |
| 20260502021650 | 42 | 360 | 0.0 | 0.0 | 0.00 | 0.00 | 0.00 | 1 | 1011.5 |
| 20260502021550 | 42 | 360 | 0.0 | 0.0 | 0.00 | 0.00 | 0.00 | 1 | 1011.5 |
| 20260502021422 | 42 | 360 | 0.0 | 0.0 | 0.00 | 0.00 | 0.00 | 3 | 1011.6 |
| 20260502021335 | 42 | 360 | 0.0 | 0.0 | 0.00 | 0.00 | 0.00 | 5 | 1011.6 |
| 20260502021124 | 42 | 360 | 0.0 | 0.0 | 0.00 | 0.00 | 0.00 | 4 | 1011.6 |
| 20260502021039 | 42 | 360 | 0.0 | 0.0 | 0.00 | 0.00 | 0.00 | 4 | 1011.6 |
| 20260502020913 | 42 | 360 | 0.0 | 0.0 | 0.00 | 0.00 | 0.00 | 3 | 1011.6 |
| 20260502020834 | 42 | 360 | 0.0 | 0.0 | 0.00 | 0.00 | 0.00 | 3 | 1011.6 |
| 20260502020638 | 43 | 360 | 0.0 | 0.0 | 0.00 | 0.00 | 0.00 | 4 | 1011.6 |
| 20260502020600 | 43 | 360 | 0.0 | 0.0 | 0.00 | 0.00 | 0.00 | 4 | 1011.6 |
| 20260502020442 | 43 | 360 | 0.0 | 0.0 | 0.00 | 0.00 | 0.00 | 4 | 1011.6 |
| 20260502020404 | 43 | 360 | 0.0 | 0.0 | 0.00 | 0.00 | 0.00 | 4 | 1011.6 |
| 20260502020317 | 43 | 360 | 0.0 | 0.0 | 0.00 | 0.00 | 0.00 | 5 | 1011.6 |
| 20260502020127 | 43 | 360 | 0.0 | 0.0 | 0.00 | 0.00 | 0.00 | 4 | 1011.5 |
| 20260502020040 | 43 | 360 | 0.0 | 0.0 | 0.00 | 0.00 | 0.00 | 4 | 1011.4 |
| 20260502015947 | 43 | 360 | 0.0 | 0.9 | 0.00 | 0.00 | 0.00 | 4 | 1011.4 |
| 20260502015841 | 43 | 360 | 0.0 | 0.9 | 0.00 | 0.00 | 0.00 | 5 | 1011.5 |
| 20260502015801 | 43 | 360 | 0.0 | 0.9 | 0.00 | 0.00 | 0.00 | 6 | 1011.5 |
| 20260502015714 | 43 | 360 | 0.0 | 0.9 | 0.00 | 0.00 | 0.00 | 6 | 1011.5 |
| 20260502015452 | 43 | 360 | 0.0 | 1.7 | 0.00 | 0.00 | 0.00 | 6 | 1011.5 |
| 20260502015353 | 43 | 360 | 0.0 | 1.7 | 0.00 | 0.00 | 0.00 | 6 | 1011.5 |
| 20260502015314 | 43 | 360 | 0.0 | 1.7 | 0.00 | 0.00 | 0.00 | 7 | 1011.6 |
| 20260502015219 | 43 | 360 | 0.0 | 1.7 | 0.00 | 0.00 | 0.00 | 7 | 1011.6 |
| 20260502015140 | 43 | 360 | 0.0 | 1.7 | 0.00 | 0.00 | 0.00 | 7 | 1011.6 |
| 20260502015010 | 43 | 360 | 0.0 | 1.7 | 0.00 | 0.00 | 0.00 | 7 | 1011.5 |
| 20260502014925 | 43 | 360 | 0.0 | 1.7 | 0.00 | 0.00 | 0.00 | 7 | 1011.5 |
| 20260502014738 | 43 | 360 | 0.9 | 1.7 | 0.00 | 0.00 | 0.00 | 5 | 1011.5 |
| 20260502014653 | 43 | 360 | 0.9 | 1.7 | 0.00 | 0.00 | 0.00 | 5 | 1011.5 |
| 20260502014523 | 44 | 360 | 0.0 | 1.7 | 0.00 | 0.00 | 0.00 | 1 | 1011.6 |
| 20260502014444 | 44 | 360 | 0.0 | 1.7 | 0.00 | 0.00 | 0.00 | 1 | 1011.6 |
| 20260502014253 | 44 | 360 | 0.0 | 1.7 | 0.00 | 0.00 | 0.00 | 5 | 1011.6 |
| 20260502014126 | 44 | 360 | 0.9 | 1.7 | 0.00 | 0.00 | 0.00 | 10 | 1011.6 |
| 20260502014048 | 44 | 360 | 0.9 | 1.7 | 0.00 | 0.00 | 0.00 | 14 | 1011.6 |
| 20260502013932 | 44 | 360 | 0.0 | 1.7 | 0.00 | 0.00 | 0.00 | 18 | 1011.6 |
| 20260502013851 | 44 | 360 | 0.0 | 0.0 | 0.00 | 0.00 | 0.00 | 18 | 1011.6 |
| 20260502013732 | 44 | 360 | 0.0 | 0.0 | 0.00 | 0.00 | 0.00 | 19 | 1011.6 |
| 20260502013633 | 44 | 360 | 0.0 | 0.0 | 0.00 | 0.00 | 0.00 | 22 | 1011.6 |
| 20260502013534 | 44 | 360 | 0.0 | 0.0 | 0.00 | 0.00 | 0.00 | 23 | 1011.6 |
| 20260502013432 | 44 | 360 | 0.0 | 0.0 | 0.00 | 0.00 | 0.00 | 23 | 1011.6 |
| 20260502013334 | 44 | 360 | 0.0 | 0.0 | 0.00 | 0.00 | 0.00 | 23 | 1011.6 |
| 20260502013233 | 44 | 360 | 0.0 | 0.0 | 0.00 | 0.00 | 0.00 | 23 | 1011.6 |
| 20260502013134 | 44 | 360 | 0.0 | 0.0 | 0.00 | 0.00 | 0.00 | 22 | 1011.6 |
| 20260502013054 | 44 | 360 | 0.0 | 0.0 | 0.00 | 0.00 | 0.00 | 22 | 1011.6 |
| 20260502013013 | 44 | 360 | 0.0 | 0.0 | 0.00 | 0.00 | 0.00 | 20 | 1011.7 |
| 20260502012914 | 44 | 360 | 0.0 | 0.0 | 0.00 | 0.00 | 0.00 | 20 | 1011.6 |
| 20260502012832 | 44 | 360 | 0.0 | 0.0 | 0.00 | 0.00 | 0.00 | 20 | 1011.6 |
| 20260502012643 | 44 | 360 | 0.0 | 0.0 | 0.00 | 0.00 | 0.00 | 20 | 1011.6 |
| 20260502012536 | 45 | 360 | 0.0 | 0.0 | 0.00 | 0.00 | 0.00 | 20 | 1011.6 |
| 20260502012416 | 45 | 360 | 0.0 | 0.0 | 0.00 | 0.00 | 0.00 | 18 | 1011.6 |
| 20260502012343 | 45 | 360 | 0.0 | 0.0 | 0.00 | 0.00 | 0.00 | 17 | 1011.5 |
| 20260502012210 | 45 | 360 | 0.0 | 0.0 | 0.00 | 0.00 | 0.00 | 17 | 1011.5 |
| 20260502012123 | 45 | 360 | 0.0 | 0.0 | 0.00 | 0.00 | 0.00 | 16 | 1011.6 |
| 20260502011949 | 45 | 360 | 0.0 | 0.0 | 0.00 | 0.00 | 0.00 | 15 | 1011.6 |
| 20260502011848 | 45 | 360 | 0.0 | 0.0 | 0.00 | 0.00 | 0.00 | 15 | 1011.6 |
| 20260502011800 | 45 | 360 | 0.0 | 0.0 | 0.00 | 0.00 | 0.00 | 15 | 1011.6 |
| 20260502011628 | 45 | 360 | 0.0 | 0.0 | 0.00 | 0.00 | 0.00 | 14 | 1011.6 |
| 20260502011524 | 45 | 360 | 0.0 | 0.0 | 0.00 | 0.00 | 0.00 | 14 | 1011.6 |
| 20260502011332 | 45 | 360 | 0.0 | 0.0 | 0.00 | 0.00 | 0.00 | 17 | 1011.6 |
| 20260502011224 | 45 | 360 | 0.0 | 0.0 | 0.00 | 0.00 | 0.00 | 21 | 1011.6 |
| 20260502011132 | 45 | 360 | 0.0 | 0.0 | 0.00 | 0.00 | 0.00 | 23 | 1011.6 |
| 20260502011052 | 45 | 360 | 0.0 | 0.0 | 0.00 | 0.00 | 0.00 | 23 | 1011.6 |
| 20260502010942 | 45 | 360 | 0.0 | 0.0 | 0.00 | 0.00 | 0.00 | 25 | 1011.6 |
| 20260502010904 | 45 | 360 | 0.0 | 0.0 | 0.00 | 0.00 | 0.00 | 25 | 1011.6 |
| 20260502010808 | 45 | 360 | 0.0 | 0.0 | 0.00 | 0.00 | 0.00 | 26 | 1011.6 |
| 20260502010727 | 45 | 360 | 0.0 | 0.0 | 0.00 | 0.00 | 0.00 | 25 | 1011.6 |
| 20260502010535 | 45 | 360 | 0.0 | 0.0 | 0.00 | 0.00 | 0.00 | 26 | 1011.5 |
| 20260502010436 | 45 | 360 | 0.0 | 0.0 | 0.00 | 0.00 | 0.00 | 25 | 1011.5 |
| 20260502010340 | 45 | 360 | 0.0 | 0.0 | 0.00 | 0.00 | 0.00 | 25 | 1011.5 |
| 20260502010302 | 45 | 360 | 0.0 | 0.0 | 0.00 | 0.00 | 0.00 | 24 | 1011.5 |
| 20260502010123 | 45 | 360 | 0.0 | 0.0 | 0.00 | 0.00 | 0.00 | 24 | 1011.5 |
| 20260502010044 | 46 | 360 | 0.0 | 0.0 | 0.00 | 0.00 | 0.00 | 24 | 1011.5 |
| 20260502005914 | 46 | 360 | 0.0 | 0.0 | 0.00 | 0.00 | 0.00 | 28 | 1011.5 |
| 20260502005808 | 46 | 360 | 0.0 | 0.0 | 0.00 | 0.00 | 0.00 | 29 | 1011.5 |
| 20260502005639 | 46 | 360 | 0.0 | 0.0 | 0.00 | 0.00 | 0.00 | 33 | 1011.5 |
| 20260502005539 | 45 | 360 | 0.0 | 0.0 | 0.00 | 0.00 | 0.00 | 33 | 1011.4 |
| 20260502005327 | 46 | 360 | 0.0 | 0.0 | 0.00 | 0.00 | 0.00 | 34 | 1011.4 |
| 20260502005250 | 46 | 360 | 0.0 | 0.0 | 0.00 | 0.00 | 0.00 | 34 | 1011.4 |
| 20260502005134 | 46 | 360 | 0.0 | 0.0 | 0.00 | 0.00 | 0.00 | 33 | 1011.3 |
| 20260502005028 | 46 | 360 | 0.0 | 0.0 | 0.00 | 0.00 | 0.00 | 32 | 1011.3 |
| 20260502005000 | 46 | 360 | 0.0 | 0.0 | 0.00 | 0.00 | 0.00 | 31 | 1011.4 |
| 20260502004900 | 46 | 360 | 0.0 | 0.0 | 0.00 | 0.00 | 0.00 | 31 | 1011.4 |
| 20260502004816 | 46 | 360 | 0.0 | 0.0 | 0.00 | 0.00 | 0.00 | 31 | 1011.3 |
| 20260502004645 | 46 | 360 | 0.0 | 0.0 | 0.00 | 0.00 | 0.00 | 30 | 1011.2 |
| 20260502004546 | 46 | 360 | 0.0 | 0.0 | 0.00 | 0.00 | 0.00 | 29 | 1011.2 |
| 20260502004449 | 46 | 360 | 0.0 | 0.0 | 0.00 | 0.00 | 0.00 | 29 | 1011.1 |
| 20260502004333 | 46 | 360 | 0.0 | 0.0 | 0.00 | 0.00 | 0.00 | 29 | 1011.2 |
| 20260502004256 | 46 | 360 | 0.0 | 0.0 | 0.00 | 0.00 | 0.00 | 29 | 1011.2 |
| 20260502004138 | 46 | 360 | 0.0 | 0.0 | 0.00 | 0.00 | 0.00 | 30 | 1011.1 |
| 20260502004101 | 46 | 360 | 0.0 | 0.0 | 0.00 | 0.00 | 0.00 | 31 | 1011.1 |
| 20260502004015 | 46 | 360 | 0.0 | 0.0 | 0.00 | 0.00 | 0.00 | 31 | 1011.1 |
| 20260502003825 | 46 | 360 | 0.0 | 0.0 | 0.00 | 0.00 | 0.00 | 35 | 1011.1 |
| 20260502003741 | 46 | 360 | 0.0 | 0.0 | 0.00 | 0.00 | 0.00 | 35 | 1011.1 |
| 20260502003642 | 47 | 360 | 0.0 | 0.9 | 0.00 | 0.00 | 0.00 | 35 | 1011.1 |
| 20260502003547 | 47 | 360 | 0.0 | 0.9 | 0.00 | 0.00 | 0.00 | 35 | 1011.1 |
| 20260502003451 | 47 | 360 | 0.0 | 0.9 | 0.00 | 0.00 | 0.00 | 35 | 1011.0 |
| 20260502003233 | 47 | 360 | 0.0 | 0.9 | 0.00 | 0.00 | 0.00 | 34 | 1011.1 |
| 20260502003133 | 47 | 360 | 0.0 | 0.9 | 0.00 | 0.00 | 0.00 | 35 | 1011.0 |
| 20260502003038 | 47 | 360 | 0.0 | 0.9 | 0.00 | 0.00 | 0.00 | 35 | 1011.0 |
| 20260502002959 | 47 | 360 | 0.0 | 0.9 | 0.00 | 0.00 | 0.00 | 36 | 1011.0 |
| 20260502002808 | 47 | 360 | 0.0 | 0.9 | 0.00 | 0.00 | 0.00 | 35 | 1011.0 |
| 20260502002724 | 47 | 360 | 0.0 | 0.9 | 0.00 | 0.00 | 0.00 | 35 | 1011.0 |
| 20260502002535 | 47 | 360 | 0.0 | 0.9 | 0.00 | 0.00 | 0.00 | 34 | 1011.0 |
| 20260502002449 | 47 | 360 | 0.0 | 0.9 | 0.00 | 0.00 | 0.00 | 33 | 1011.0 |
| 20260502002245 | 47 | 360 | 0.0 | 0.9 | 0.00 | 0.00 | 0.00 | 38 | 1011.0 |
| 20260502002150 | 47 | 360 | 0.0 | 0.9 | 0.00 | 0.00 | 0.00 | 38 | 1011.0 |
| 20260502002111 | 47 | 360 | 0.0 | 0.9 | 0.00 | 0.00 | 0.00 | 39 | 1011.0 |
| 20260502002015 | 48 | 360 | 0.0 | 0.0 | 0.00 | 0.00 | 0.00 | 40 | 1011.0 |
| 20260502001936 | 48 | 360 | 0.0 | 0.0 | 0.00 | 0.00 | 0.00 | 42 | 1010.9 |
| 20260502001806 | 48 | 360 | 0.0 | 0.0 | 0.00 | 0.00 | 0.00 | 44 | 1010.9 |
| 20260502001721 | 48 | 360 | 0.0 | 0.0 | 0.00 | 0.00 | 0.00 | 45 | 1010.9 |
| 20260502001549 | 48 | 360 | 0.0 | 0.0 | 0.00 | 0.00 | 0.00 | 47 | 1010.8 |
| 20260502001450 | 48 | 360 | 0.0 | 0.0 | 0.00 | 0.00 | 0.00 | 47 | 1010.8 |
| 20260502001353 | 48 | 360 | 0.0 | 0.0 | 0.00 | 0.00 | 0.00 | 47 | 1010.9 |
| 20260502001314 | 48 | 360 | 0.0 | 0.0 | 0.00 | 0.00 | 0.00 | 47 | 1010.9 |
| 20260502001144 | 48 | 360 | 0.0 | 0.0 | 0.00 | 0.00 | 0.00 | 47 | 1010.8 |
| 20260502001037 | 48 | 360 | 0.0 | 0.0 | 0.00 | 0.00 | 0.00 | 47 | 1010.8 |
| 20260502000908 | 48 | 360 | 0.0 | 0.0 | 0.00 | 0.00 | 0.00 | 47 | 1010.8 |
| 20260502000834 | 48 | 360 | 0.0 | 0.0 | 0.00 | 0.00 | 0.00 | 47 | 1010.8 |
| 20260502000638 | 48 | 360 | 0.0 | 0.9 | 0.00 | 0.00 | 0.00 | 48 | 1010.7 |
| 20260502000539 | 48 | 360 | 0.0 | 0.9 | 0.00 | 0.00 | 0.00 | 49 | 1010.7 |
| 20260502000424 | 49 | 360 | 0.0 | 0.9 | 0.00 | 0.00 | 0.00 | 49 | 1010.6 |
| 20260502000344 | 49 | 360 | 0.0 | 0.9 | 0.00 | 0.00 | 0.00 | 49 | 1010.7 |
| 20260502000226 | 49 | 360 | 0.0 | 0.9 | 0.00 | 0.00 | 0.00 | 50 | 1010.6 |
| 20260502000147 | 49 | 360 | 0.0 | 0.9 | 0.00 | 0.00 | 0.00 | 50 | 1010.6 |
| 20260502000108 | 49 | 360 | 0.0 | 0.9 | 0.00 | 0.00 | 0.00 | 50 | 1010.6 |
| 20260501235929 | 49 | 360 | 0.0 | 0.0 | 0.00 | 0.00 | 0.00 | 50 | 1010.6 |
| 20260501235856 | 49 | 360 | 0.0 | 0.0 | 0.00 | 0.00 | 0.00 | 50 | 1010.6 |
| 20260501235818 | 49 | 360 | 0.0 | 0.0 | 0.00 | 0.00 | 0.00 | 51 | 1010.6 |
| 20260501235722 | 49 | 360 | 0.0 | 0.9 | 0.00 | 0.00 | 0.00 | 51 | 1010.6 |
| 20260501235643 | 49 | 360 | 0.0 | 0.9 | 0.00 | 0.00 | 0.00 | 52 | 1010.6 |
| 20260501235438 | 49 | 360 | 0.0 | 0.9 | 0.00 | 0.00 | 0.00 | 53 | 1010.6 |
| 20260501235339 | 49 | 360 | 0.0 | 0.9 | 0.00 | 0.00 | 0.00 | 53 | 1010.6 |
| 20260501235231 | 49 | 360 | 0.0 | 0.9 | 0.00 | 0.00 | 0.00 | 53 | 1010.6 |
| 20260501235154 | 50 | 360 | 0.0 | 0.9 | 0.00 | 0.00 | 0.00 | 53 | 1010.6 |
| 20260501235116 | 50 | 360 | 0.0 | 0.9 | 0.00 | 0.00 | 0.00 | 54 | 1010.6 |
| 20260501234938 | 50 | 360 | 0.0 | 0.9 | 0.00 | 0.00 | 0.00 | 54 | 1010.6 |
| 20260501234905 | 50 | 360 | 0.0 | 0.9 | 0.00 | 0.00 | 0.00 | 54 | 1010.6 |
| 20260501234818 | 50 | 360 | 0.0 | 1.7 | 0.00 | 0.00 | 0.00 | 53 | 1010.5 |
| 20260501234629 | 50 | 360 | 0.0 | 1.7 | 0.00 | 0.00 | 0.00 | 54 | 1010.5 |
| 20260501234543 | 50 | 360 | 0.0 | 1.7 | 0.00 | 0.00 | 0.00 | 53 | 1010.5 |
| 20260501234413 | 50 | 360 | 0.0 | 1.7 | 0.00 | 0.00 | 0.00 | 53 | 1010.5 |
| 20260501234334 | 50 | 360 | 0.0 | 1.7 | 0.00 | 0.00 | 0.00 | 52 | 1010.4 |
| 20260501234204 | 50 | 360 | 0.9 | 1.7 | 0.00 | 0.00 | 0.00 | 49 | 1010.4 |
| 20260501234037 | 50 | 360 | 0.9 | 1.7 | 0.00 | 0.00 | 0.00 | 49 | 1010.4 |
| 20260501233959 | 50 | 360 | 0.9 | 1.7 | 0.00 | 0.00 | 0.00 | 50 | 1010.4 |
| 20260501233827 | 50 | 360 | 0.9 | 2.6 | 0.00 | 0.00 | 0.00 | 51 | 1010.4 |
| 20260501233741 | 50 | 360 | 0.9 | 2.6 | 0.00 | 0.00 | 0.00 | 50 | 1010.4 |
| 20260501233613 | 50 | 360 | 0.9 | 2.6 | 0.00 | 0.00 | 0.00 | 49 | 1010.4 |
| 20260501233534 | 50 | 360 | 0.9 | 3.5 | 0.00 | 0.00 | 0.00 | 49 | 1010.4 |
| 20260501233337 | 50 | 360 | 0.0 | 3.5 | 0.00 | 0.00 | 0.00 | 50 | 1010.4 |
| 20260501233259 | 50 | 360 | 0.9 | 3.5 | 0.00 | 0.00 | 0.00 | 50 | 1010.4 |
| 20260501233144 | 51 | 360 | 0.9 | 3.5 | 0.00 | 0.00 | 0.00 | 48 | 1010.4 |
| 20260501233045 | 51 | 360 | 0.9 | 3.5 | 0.00 | 0.00 | 0.00 | 49 | 1010.4 |
| 20260501232941 | 51 | 360 | 0.9 | 3.5 | 0.00 | 0.00 | 0.00 | 48 | 1010.4 |
| 20260501232829 | 51 | 360 | 1.7 | 3.5 | 0.00 | 0.00 | 0.00 | 47 | 1010.3 |
| 20260501232750 | 51 | 360 | 0.9 | 3.5 | 0.00 | 0.00 | 0.00 | 48 | 1010.3 |
| 20260501232623 | 51 | 349 | 0.9 | 3.5 | 0.00 | 0.00 | 0.00 | 48 | 1010.3 |
| 20260501232546 | 51 | 349 | 0.9 | 3.5 | 0.00 | 0.00 | 0.00 | 47 | 1010.3 |
| 20260501232508 | 51 | 349 | 1.7 | 3.5 | 0.00 | 0.00 | 0.00 | 47 | 1010.3 |
| 20260501232337 | 51 | 350 | 1.7 | 2.6 | 0.00 | 0.00 | 0.00 | 46 | 1010.3 |
| 20260501232230 | 51 | 355 | 1.7 | 2.6 | 0.00 | 0.00 | 0.00 | 46 | 1010.3 |
| 20260501232039 | 51 | 355 | 1.7 | 3.5 | 0.00 | 0.00 | 0.00 | 46 | 1010.3 |
| 20260501231935 | 51 | 355 | 1.7 | 3.5 | 0.00 | 0.00 | 0.00 | 46 | 1010.3 |
| 20260501231858 | 51 | 355 | 0.9 | 3.5 | 0.00 | 0.00 | 0.00 | 46 | 1010.3 |
| 20260501231806 | 51 | 355 | 0.9 | 3.5 | 0.00 | 0.00 | 0.00 | 46 | 1010.3 |
| 20260501231725 | 51 | 355 | 1.7 | 3.5 | 0.00 | 0.00 | 0.00 | 46 | 1010.3 |
| 20260501231528 | 51 | 355 | 1.7 | 3.5 | 0.00 | 0.00 | 0.00 | 46 | 1010.3 |
| 20260501231429 | 51 | 350 | 1.7 | 3.5 | 0.00 | 0.00 | 0.00 | 46 | 1010.3 |
| 20260501231333 | 51 | 350 | 1.7 | 3.5 | 0.00 | 0.00 | 0.00 | 46 | 1010.3 |
| 20260501231256 | 51 | 355 | 1.7 | 2.6 | 0.00 | 0.00 | 0.00 | 45 | 1010.3 |
| 20260501231218 | 51 | 360 | 1.7 | 2.6 | 0.00 | 0.00 | 0.00 | 45 | 1010.2 |
| 20260501231122 | 51 | 11 | 0.9 | 2.6 | 0.00 | 0.00 | 0.00 | 46 | 1010.2 |
| 20260501231022 | 51 | 12 | 0.9 | 2.6 | 0.00 | 0.00 | 0.00 | 46 | 1010.2 |
| 20260501230825 | 51 | 22 | 0.9 | 4.3 | 0.00 | 0.00 | 0.00 | 46 | 1010.2 |
| 20260501230749 | 51 | 22 | 0.9 | 4.3 | 0.00 | 0.00 | 0.00 | 46 | 1010.2 |
| 20260501230620 | 51 | 22 | 0.0 | 4.3 | 0.00 | 0.00 | 0.00 | 46 | 1010.2 |
| 20260501230520 | 51 | 22 | 0.9 | 4.3 | 0.00 | 0.00 | 0.00 | 46 | 1010.2 |
| 20260501230403 | 51 | 22 | 0.9 | 4.3 | 0.00 | 0.00 | 0.00 | 46 | 1010.2 |
| 20260501230324 | 51 | 22 | 1.7 | 4.3 | 0.00 | 0.00 | 0.00 | 45 | 1010.2 |
| 20260501230126 | 51 | 30 | 1.7 | 4.3 | 0.00 | 0.00 | 0.00 | 45 | 1010.1 |
| 20260501230027 | 51 | 32 | 1.7 | 4.3 | 0.00 | 0.00 | 0.00 | 45 | 1010.1 |
| 20260501225932 | 51 | 32 | 1.7 | 4.3 | 0.00 | 0.00 | 0.00 | 44 | 1010.1 |
| 20260501225854 | 51 | 18 | 1.7 | 4.3 | 0.00 | 0.00 | 0.00 | 46 | 1010.1 |
| 20260501225815 | 51 | 20 | 1.7 | 4.3 | 0.00 | 0.00 | 0.00 | 45 | 1010.1 |
| 20260501225622 | 51 | 360 | 2.6 | 4.3 | 0.00 | 0.00 | 0.00 | 43 | 1010.1 |
| 20260501225545 | 51 | 26 | 2.6 | 5.2 | 0.00 | 0.00 | 0.00 | 43 | 1010.1 |
| 20260501225426 | 51 | 26 | 2.6 | 5.2 | 0.00 | 0.00 | 0.00 | 44 | 1010.1 |
| 20260501225349 | 51 | 9 | 2.6 | 5.2 | 0.00 | 0.00 | 0.00 | 44 | 1010.1 |
| 20260501225242 | 51 | 344 | 1.7 | 5.2 | 0.00 | 0.00 | 0.00 | 45 | 1010.1 |
| 20260501225125 | 51 | 350 | 1.7 | 5.2 | 0.00 | 0.00 | 0.00 | 45 | 1010.1 |
| 20260501225026 | 52 | 355 | 1.7 | 5.2 | 0.00 | 0.00 | 0.00 | 45 | 1010.1 |
| 20260501224949 | 52 | 360 | 0.9 | 5.2 | 0.00 | 0.00 | 0.00 | 44 | 1010.1 |
| 20260501224852 | 52 | 360 | 2.6 | 5.2 | 0.00 | 0.00 | 0.00 | 45 | 1010.1 |
| 20260501224757 | 52 | 360 | 2.6 | 5.2 | 0.00 | 0.00 | 0.00 | 44 | 1010.1 |
| 20260501224627 | 52 | 24 | 2.6 | 4.3 | 0.00 | 0.00 | 0.00 | 43 | 1010.1 |
| 20260501224521 | 52 | 16 | 2.6 | 4.3 | 0.00 | 0.00 | 0.00 | 45 | 1010.1 |
| 20260501224330 | 52 | 355 | 2.6 | 4.3 | 0.00 | 0.00 | 0.00 | 44 | 1010.1 |
| 20260501224244 | 52 | 360 | 2.6 | 4.3 | 0.00 | 0.00 | 0.00 | 44 | 1010.1 |
| 20260501224114 | 52 | 9 | 1.7 | 4.3 | 0.00 | 0.00 | 0.00 | 45 | 1010.1 |
| 20260501224015 | 52 | 355 | 1.7 | 5.2 | 0.00 | 0.00 | 0.00 | 44 | 1010.1 |
| 20260501223727 | 52 | 334 | 2.6 | 7.0 | 0.00 | 0.00 | 0.00 | 43 | 1010.1 |
| 20260501223649 | 52 | 34 | 2.6 | 7.0 | 0.00 | 0.00 | 0.00 | 44 | 1010.1 |
| 20260501223533 | 52 | 355 | 2.6 | 7.0 | 0.00 | 0.00 | 0.00 | 44 | 1010.1 |
| 20260501223500 | 52 | 346 | 2.6 | 7.0 | 0.00 | 0.00 | 0.00 | 43 | 1010.1 |
| 20260501223421 | 52 | 360 | 2.6 | 7.0 | 0.00 | 0.00 | 0.00 | 44 | 1010.1 |
| 20260501223224 | 52 | 347 | 3.5 | 7.0 | 0.00 | 0.00 | 0.00 | 43 | 1010.1 |
| 20260501223146 | 52 | 34 | 3.5 | 7.0 | 0.00 | 0.00 | 0.00 | 43 | 1010.1 |
| 20260501223029 | 52 | 350 | 2.6 | 7.0 | 0.00 | 0.00 | 0.00 | 43 | 1010.1 |
| 20260501222952 | 52 | 28 | 2.6 | 5.2 | 0.00 | 0.00 | 0.00 | 45 | 1010.1 |
| 20260501222907 | 52 | 355 | 2.6 | 5.2 | 0.00 | 0.00 | 0.00 | 44 | 1010.1 |
| 20260501222737 | 52 | 5 | 2.6 | 5.2 | 0.00 | 0.00 | 0.00 | 43 | 1010.1 |
| 20260501222638 | 52 | 22 | 1.7 | 5.2 | 0.00 | 0.00 | 0.00 | 45 | 1010.1 |
| 20260501222441 | 52 | 9 | 2.6 | 7.0 | 0.00 | 0.00 | 0.00 | 43 | 1010.0 |
| 20260501222407 | 52 | 24 | 2.6 | 7.0 | 0.00 | 0.00 | 0.00 | 43 | 1010.0 |
| 20260501222311 | 52 | 12 | 2.6 | 7.0 | 0.00 | 0.00 | 0.00 | 44 | 1010.0 |
| 20260501222233 | 52 | 355 | 2.6 | 7.0 | 0.00 | 0.00 | 0.00 | 43 | 1010.0 |
| 20260501222037 | 52 | 334 | 1.7 | 7.0 | 0.00 | 0.00 | 0.00 | 43 | 1009.9 |
| 20260501221939 | 52 | 10 | 2.6 | 7.0 | 0.00 | 0.00 | 0.00 | 44 | 1009.9 |
| 20260501221854 | 52 | 10 | 3.5 | 7.0 | 0.00 | 0.00 | 0.00 | 43 | 1010.0 |
| 20260501221814 | 52 | 342 | 3.5 | 7.0 | 0.00 | 0.00 | 0.00 | 43 | 1010.0 |
| 20260501221626 | 53 | 355 | 4.3 | 7.0 | 0.00 | 0.00 | 0.00 | 42 | 1009.9 |
| 20260501221539 | 53 | 346 | 3.5 | 7.0 | 0.00 | 0.00 | 0.00 | 44 | 1010.0 |
| 20260501221332 | 53 | 346 | 3.5 | 7.0 | 0.00 | 0.00 | 0.00 | 42 | 1010.0 |
| 20260501221247 | 53 | 348 | 3.5 | 7.0 | 0.00 | 0.00 | 0.00 | 42 | 1010.0 |
| 20260501221036 | 53 | 23 | 3.5 | 5.2 | 0.00 | 0.00 | 0.00 | 41 | 1010.0 |
| 20260501220952 | 53 | 344 | 2.6 | 5.2 | 0.00 | 0.00 | 0.00 | 41 | 1010.0 |
| 20260501220821 | 53 | 21 | 2.6 | 5.2 | 0.00 | 0.00 | 0.00 | 41 | 1010.1 |
| 20260501220730 | 53 | 12 | 3.5 | 5.2 | 0.00 | 0.00 | 0.00 | 41 | 1010.0 |
| 20260501220534 | 53 | 355 | 2.6 | 5.2 | 0.00 | 0.00 | 0.00 | 44 | 1010.0 |
| 20260501220456 | 53 | 340 | 2.6 | 5.2 | 0.00 | 0.00 | 0.00 | 44 | 1010.0 |
| 20260501220400 | 53 | 344 | 3.5 | 5.2 | 0.00 | 0.00 | 0.00 | 43 | 1010.0 |
| 20260501220238 | 53 | 336 | 2.6 | 5.2 | 0.00 | 0.00 | 0.00 | 43 | 1010.0 |
| 20260501220148 | 53 | 341 | 2.6 | 5.2 | 0.00 | 0.00 | 0.00 | 42 | 1010.0 |
| 20260501220111 | 53 | 324 | 3.5 | 5.2 | 0.00 | 0.00 | 0.00 | 42 | 1010.0 |
| 20260501220009 | 53 | 350 | 3.5 | 5.2 | 0.00 | 0.00 | 0.00 | 40 | 1010.0 |
| 20260501215930 | 53 | 335 | 3.5 | 7.0 | 0.00 | 0.01 | 0.00 | 40 | 1010.0 |
| 20260501215824 | 53 | 327 | 3.5 | 8.7 | 0.00 | 0.01 | 0.00 | 41 | 1010.0 |
| 20260501215634 | 53 | 350 | 1.7 | 8.7 | 0.00 | 0.01 | 0.00 | 42 | 1010.0 |
| 20260501215528 | 53 | 344 | 1.7 | 8.7 | 0.00 | 0.01 | 0.00 | 41 | 1010.0 |
| 20260501215450 | 53 | 344 | 2.6 | 8.7 | 0.00 | 0.01 | 0.00 | 41 | 1010.0 |
| 20260501215335 | 53 | 327 | 2.6 | 8.7 | 0.00 | 0.01 | 0.00 | 41 | 1010.0 |
| 20260501215257 | 53 | 317 | 2.6 | 8.7 | 0.00 | 0.01 | 0.00 | 41 | 1010.0 |
| 20260501215215 | 53 | 313 | 3.5 | 8.7 | 0.00 | 0.01 | 0.00 | 41 | 1010.0 |
| 20260501215025 | 53 | 307 | 5.2 | 8.7 | 0.00 | 0.01 | 0.00 | 39 | 1010.0 |
| 20260501214940 | 53 | 338 | 6.1 | 8.7 | 0.00 | 0.01 | 0.00 | 41 | 1010.0 |
| 20260501214728 | 53 | 347 | 4.3 | 8.7 | 0.00 | 0.01 | 0.00 | 41 | 1010.0 |
| 20260501214643 | 53 | 340 | 3.5 | 8.7 | 0.00 | 0.01 | 0.00 | 40 | 1010.0 |
| 20260501214513 | 53 | 5 | 3.5 | 8.7 | 0.00 | 0.01 | 0.00 | 40 | 1010.0 |
| 20260501214435 | 53 | 342 | 3.5 | 8.7 | 0.00 | 0.01 | 0.00 | 41 | 1010.0 |
| 20260501214238 | 53 | 319 | 2.6 | 8.7 | 0.00 | 0.01 | 0.00 | 40 | 1010.0 |
| 20260501214139 | 53 | 360 | 2.6 | 8.7 | 0.00 | 0.01 | 0.00 | 41 | 1009.9 |
| 20260501214027 | 53 | 355 | 4.3 | 8.7 | 0.00 | 0.01 | 0.00 | 41 | 1009.9 |
| 20260501213950 | 53 | 327 | 4.3 | 8.7 | 0.00 | 0.01 | 0.00 | 40 | 1009.9 |
| 20260501213912 | 53 | 15 | 3.5 | 8.7 | 0.00 | 0.01 | 0.00 | 41 | 1010.0 |
| 20260501213815 | 53 | 344 | 2.6 | 8.7 | 0.00 | 0.01 | 0.00 | 40 | 1010.0 |
| 20260501213704 | 53 | 332 | 4.3 | 8.7 | 0.00 | 0.01 | 0.00 | 39 | 1009.9 |
| 20260501213522 | 54 | 350 | 4.3 | 8.7 | 0.00 | 0.01 | 0.00 | 38 | 1009.9 |
| 20260501213427 | 54 | 308 | 4.3 | 8.7 | 0.00 | 0.01 | 0.00 | 38 | 1009.9 |
| 20260501213327 | 54 | 319 | 4.3 | 8.7 | 0.00 | 0.01 | 0.00 | 39 | 1009.9 |
| 20260501213136 | 54 | 300 | 4.3 | 8.7 | 0.00 | 0.01 | 0.00 | 38 | 1009.8 |
| 20260501213030 | 54 | 326 | 1.7 | 8.7 | 0.00 | 0.01 | 0.00 | 36 | 1009.8 |
| 20260501212840 | 54 | 313 | 1.7 | 8.7 | 0.00 | 0.01 | 0.00 | 39 | 1009.8 |
| 20260501212739 | 55 | 350 | 2.6 | 8.7 | 0.00 | 0.01 | 0.00 | 38 | 1009.8 |
| 20260501212623 | 55 | 333 | 4.3 | 8.7 | 0.00 | 0.01 | 0.00 | 36 | 1009.8 |
| 20260501212545 | 55 | 348 | 4.3 | 8.7 | 0.00 | 0.01 | 0.00 | 36 | 1009.8 |
| 20260501212505 | 55 | 350 | 4.3 | 8.7 | 0.00 | 0.01 | 0.00 | 37 | 1009.8 |
| 20260501212426 | 55 | 340 | 5.2 | 8.7 | 0.00 | 0.01 | 0.00 | 38 | 1009.8 |
| 20260501212309 | 55 | 309 | 6.1 | 8.7 | 0.00 | 0.01 | 0.00 | 38 | 1009.8 |
| 20260501212231 | 55 | 310 | 6.1 | 8.7 | 0.00 | 0.01 | 0.00 | 37 | 1009.8 |
| 20260501212034 | 55 | 355 | 5.2 | 8.7 | 0.00 | 0.01 | 0.00 | 39 | 1009.7 |
| 20260501211936 | 55 | 349 | 3.5 | 8.7 | 0.00 | 0.01 | 0.00 | 37 | 1009.7 |
| 20260501211849 | 55 | 355 | 2.6 | 8.7 | 0.00 | 0.01 | 0.00 | 37 | 1009.7 |
| 20260501211733 | 55 | 342 | 4.3 | 8.7 | 0.00 | 0.01 | 0.00 | 39 | 1009.7 |
| 20260501211637 | 55 | 355 | 4.3 | 8.7 | 0.00 | 0.01 | 0.00 | 39 | 1009.8 |
| 20260501211600 | 55 | 355 | 4.3 | 8.7 | 0.00 | 0.01 | 0.00 | 39 | 1009.8 |
| 20260501211521 | 55 | 23 | 2.6 | 8.7 | 0.00 | 0.01 | 0.00 | 39 | 1009.7 |
| 20260501211343 | 55 | 5 | 2.6 | 8.7 | 0.00 | 0.01 | 0.00 | 40 | 1009.8 |
| 20260501211304 | 55 | 53 | 2.6 | 11.3 | 0.00 | 0.01 | 0.00 | 39 | 1009.8 |
| 20260501211226 | 55 | 63 | 2.6 | 12.2 | 0.00 | 0.01 | 0.00 | 40 | 1009.8 |
| 20260501211107 | 55 | 24 | 2.6 | 12.2 | 0.00 | 0.01 | 0.00 | 39 | 1009.7 |
| 20260501211029 | 55 | 5 | 2.6 | 12.2 | 0.00 | 0.01 | 0.00 | 39 | 1009.8 |
| 20260501210832 | 55 | 338 | 4.3 | 12.2 | 0.00 | 0.01 | 0.00 | 39 | 1009.8 |
| 20260501210737 | 55 | 355 | 6.1 | 12.2 | 0.00 | 0.01 | 0.00 | 39 | 1009.8 |
| 20260501210641 | 55 | 320 | 6.1 | 12.2 | 0.00 | 0.01 | 0.00 | 38 | 1009.8 |
| 20260501210544 | 55 | 344 | 7.8 | 12.2 | 0.00 | 0.01 | 0.00 | 37 | 1009.8 |
| 20260501210438 | 55 | 355 | 7.8 | 12.2 | 0.00 | 0.01 | 0.00 | 38 | 1009.8 |
| 20260501210322 | 55 | 332 | 4.3 | 12.2 | 0.00 | 0.01 | 0.00 | 39 | 1009.8 |
| 20260501210245 | 55 | 323 | 2.6 | 12.2 | 0.00 | 0.01 | 0.00 | 42 | 1009.8 |
| 20260501210205 | 55 | 342 | 2.6 | 12.2 | 0.00 | 0.01 | 0.00 | 42 | 1009.7 |
| 20260501210039 | 55 | 27 | 5.2 | 12.2 | 0.00 | 0.01 | 0.00 | 39 | 1009.8 |
| 20260501205946 | 55 | 49 | 7.0 | 12.2 | 0.00 | 0.01 | 0.00 | 39 | 1009.8 |
| 20260501205830 | 55 | 317 | 5.2 | 12.2 | 0.00 | 0.06 | 0.00 | 39 | 1009.8 |
| 20260501205750 | 55 | 325 | 5.2 | 13.9 | 0.00 | 0.06 | 0.00 | 39 | 1009.8 |
| 20260501205622 | 55 | 34 | 5.2 | 13.9 | 0.00 | 0.06 | 0.00 | 42 | 1009.8 |
| 20260501205536 | 54 | 29 | 4.3 | 13.9 | 0.00 | 0.06 | 0.00 | 41 | 1009.8 |
| 20260501205405 | 54 | 309 | 3.5 | 13.9 | 0.00 | 0.06 | 0.00 | 37 | 1009.8 |
| 20260501205306 | 54 | 262 | 3.5 | 13.9 | 0.00 | 0.06 | 0.00 | 38 | 1009.8 |
| 20260501205129 | 54 | 259 | 4.3 | 13.9 | 0.00 | 0.06 | 0.00 | 39 | 1009.8 |
| 20260501205050 | 55 | 294 | 7.8 | 13.9 | 0.00 | 0.06 | 0.00 | 37 | 1009.8 |
| 20260501204932 | 55 | 313 | 7.8 | 13.9 | 0.00 | 0.06 | 0.00 | 38 | 1009.8 |
| 20260501204854 | 55 | 321 | 7.8 | 13.9 | 0.00 | 0.06 | 0.00 | 38 | 1009.8 |
| 20260501204820 | 55 | 317 | 7.0 | 10.4 | 0.00 | 0.06 | 0.00 | 39 | 1009.8 |
| 20260501204702 | 55 | 340 | 5.2 | 10.4 | 0.00 | 0.06 | 0.00 | 39 | 1009.7 |
| 20260501204542 | 55 | 329 | 1.7 | 9.6 | 0.00 | 0.06 | 0.00 | 39 | 1009.7 |
| 20260501204427 | 55 | 227 | 1.7 | 9.6 | 0.00 | 0.06 | 0.00 | 39 | 1009.7 |
| 20260501204349 | 55 | 323 | 1.7 | 9.6 | 0.00 | 0.06 | 0.00 | 39 | 1009.7 |
| 20260501204304 | 54 | 347 | 2.6 | 9.6 | 0.00 | 0.06 | 0.00 | 38 | 1009.8 |
| 20260501204132 | 54 | 355 | 4.3 | 9.6 | 0.00 | 0.06 | 0.00 | 39 | 1009.8 |
| 20260501204032 | 54 | 345 | 3.5 | 7.8 | 0.00 | 0.06 | 0.00 | 39 | 1009.9 |
| 20260501203836 | 54 | 42 | 2.6 | 7.8 | 0.00 | 0.06 | 0.00 | 38 | 1009.9 |
| 20260501203741 | 54 | 24 | 3.5 | 7.8 | 0.00 | 0.06 | 0.00 | 41 | 1009.9 |
| 20260501203625 | 54 | 321 | 2.6 | 12.2 | 0.00 | 0.06 | 0.00 | 42 | 1009.9 |
| 20260501203547 | 54 | 332 | 2.6 | 12.2 | 0.00 | 0.06 | 0.00 | 41 | 1009.9 |
| 20260501203430 | 54 | 360 | 4.3 | 12.2 | 0.00 | 0.06 | 0.00 | 38 | 1009.9 |
| 20260501203351 | 54 | 34 | 5.2 | 12.2 | 0.00 | 0.06 | 0.00 | 39 | 1009.9 |
| 20260501203234 | 54 | 42 | 6.1 | 12.2 | 0.00 | 0.06 | 0.00 | 40 | 1010.0 |
| 20260501203135 | 54 | 28 | 5.2 | 12.2 | 0.00 | 0.06 | 0.00 | 41 | 1010.0 |
| 20260501203005 | 54 | 355 | 7.0 | 12.2 | 0.00 | 0.06 | 0.00 | 40 | 1010.0 |
| 20260501202919 | 54 | 355 | 7.0 | 12.2 | 0.00 | 0.06 | 0.00 | 40 | 1010.0 |
| 20260501202728 | 54 | 336 | 4.3 | 9.6 | 0.00 | 0.06 | 0.00 | 40 | 1010.0 |
| 20260501202647 | 54 | 344 | 4.3 | 9.6 | 0.00 | 0.06 | 0.00 | 41 | 1010.0 |
| 20260501202455 | 54 | 348 | 4.3 | 9.6 | 0.00 | 0.06 | 0.00 | 39 | 1010.0 |
| 20260501202416 | 54 | 344 | 5.2 | 9.6 | 0.00 | 0.06 | 0.00 | 40 | 1010.0 |
| 20260501202244 | 54 | 327 | 7.0 | 9.6 | 0.00 | 0.06 | 0.00 | 39 | 1010.0 |
| 20260501202137 | 54 | 325 | 6.1 | 9.6 | 0.00 | 0.06 | 0.00 | 40 | 1009.9 |
| 20260501202039 | 54 | 9 | 5.2 | 9.6 | 0.00 | 0.06 | 0.00 | 39 | 1010.0 |
| 20260501201922 | 54 | 11 | 3.5 | 9.6 | 0.00 | 0.06 | 0.00 | 38 | 1009.9 |
| 20260501201845 | 54 | 319 | 3.5 | 9.6 | 0.00 | 0.06 | 0.00 | 39 | 1009.9 |
| 20260501201738 | 55 | 15 | 4.3 | 9.6 | 0.00 | 0.06 | 0.00 | 38 | 1009.9 |
| 20260501201627 | 55 | 298 | 7.0 | 9.6 | 0.00 | 0.06 | 0.00 | 40 | 1009.9 |
| 20260501201549 | 55 | 319 | 7.0 | 9.6 | 0.00 | 0.06 | 0.00 | 40 | 1009.9 |
| 20260501201510 | 54 | 345 | 6.1 | 8.7 | 0.00 | 0.06 | 0.00 | 39 | 1009.9 |
| 20260501201333 | 54 | 343 | 3.5 | 8.7 | 0.00 | 0.06 | 0.00 | 40 | 1009.9 |
| 20260501201256 | 54 | 326 | 2.6 | 7.0 | 0.00 | 0.06 | 0.00 | 40 | 1009.9 |
| 20260501201209 | 54 | 338 | 2.6 | 7.0 | 0.00 | 0.06 | 0.00 | 39 | 1009.9 |
| 20260501201019 | 54 | 317 | 2.6 | 7.0 | 0.00 | 0.06 | 0.00 | 44 | 1009.9 |
| 20260501200940 | 54 | 345 | 2.6 | 7.8 | 0.00 | 0.06 | 0.00 | 41 | 1009.8 |
| 20260501200721 | 53 | 332 | 4.3 | 7.8 | 0.00 | 0.06 | 0.00 | 41 | 1009.9 |
| 20260501200644 | 53 | 310 | 3.5 | 7.8 | 0.00 | 0.06 | 0.00 | 41 | 1009.9 |
| 20260501200532 | 53 | 322 | 1.7 | 7.8 | 0.00 | 0.06 | 0.00 | 43 | 1009.9 |
| 20260501200454 | 53 | 12 | 1.7 | 7.8 | 0.00 | 0.06 | 0.00 | 41 | 1009.9 |
| 20260501200416 | 53 | 340 | 2.6 | 7.8 | 0.00 | 0.06 | 0.00 | 42 | 1009.9 |
| 20260501200239 | 53 | 339 | 3.5 | 9.6 | 0.00 | 0.06 | 0.00 | 43 | 1010.0 |
| 20260501200140 | 53 | 329 | 2.6 | 12.2 | 0.00 | 0.06 | 0.00 | 42 | 1010.0 |
| 20260501200026 | 53 | 325 | 1.7 | 12.2 | 0.00 | 0.06 | 0.00 | 41 | 1010.0 |
| 20260501195947 | 53 | 30 | 1.7 | 12.2 | 0.00 | 0.13 | 0.00 | 41 | 1010.0 |
| 20260501195729 | 53 | 326 | 4.3 | 12.2 | 0.00 | 0.13 | 0.00 | 39 | 1010.1 |
| 20260501195652 | 53 | 327 | 5.2 | 12.2 | 0.00 | 0.13 | 0.00 | 39 | 1010.1 |
| 20260501195538 | 53 | 360 | 7.8 | 12.2 | 0.00 | 0.13 | 0.00 | 41 | 1010.0 |
| 20260501195500 | 53 | 315 | 7.8 | 12.2 | 0.00 | 0.13 | 0.00 | 41 | 1010.0 |
| 20260501195414 | 53 | 327 | 8.7 | 12.2 | 0.00 | 0.13 | 0.00 | 39 | 1010.0 |
| 20260501195224 | 53 | 342 | 7.0 | 8.7 | 0.00 | 0.13 | 0.00 | 42 | 1010.0 |
| 20260501195139 | 53 | 334 | 5.2 | 8.7 | 0.00 | 0.13 | 0.00 | 41 | 1010.0 |
| 20260501195010 | 53 | 351 | 3.5 | 7.8 | 0.00 | 0.13 | 0.00 | 42 | 1010.0 |
| 20260501194933 | 53 | 351 | 2.6 | 7.8 | 0.00 | 0.13 | 0.00 | 43 | 1010.0 |
| 20260501194735 | 53 | 351 | 3.5 | 8.7 | 0.00 | 0.13 | 0.00 | 43 | 1010.0 |
| 20260501194637 | 53 | 355 | 3.5 | 8.7 | 0.00 | 0.13 | 0.00 | 41 | 1010.0 |
| 20260501194524 | 53 | 5 | 4.3 | 8.7 | 0.00 | 0.13 | 0.00 | 40 | 1010.1 |
| 20260501194445 | 52 | 5 | 4.3 | 8.7 | 0.00 | 0.13 | 0.00 | 43 | 1010.1 |
| 20260501194328 | 52 | 24 | 3.5 | 8.7 | 0.00 | 0.13 | 0.00 | 41 | 1010.1 |
| 20260501194249 | 52 | 360 | 3.5 | 8.7 | 0.00 | 0.13 | 0.00 | 41 | 1010.1 |
| 20260501194033 | 52 | 28 | 4.3 | 8.7 | 0.00 | 0.13 | 0.00 | 41 | 1010.0 |
| 20260501193935 | 53 | 355 | 6.1 | 8.7 | 0.00 | 0.13 | 0.00 | 41 | 1010.0 |
| 20260501193838 | 53 | 35 | 4.3 | 8.7 | 0.00 | 0.13 | 0.00 | 41 | 1010.0 |
| 20260501193737 | 53 | 355 | 3.5 | 8.7 | 0.00 | 0.13 | 0.00 | 41 | 1010.0 |
| 20260501193557 | 53 | 14 | 4.3 | 8.7 | 0.00 | 0.13 | 0.00 | 42 | 1010.0 |
| 20260501193451 | 53 | 360 | 5.2 | 8.7 | 0.00 | 0.13 | 0.00 | 42 | 1010.0 |
| 20260501193322 | 53 | 339 | 3.5 | 7.0 | 0.00 | 0.13 | 0.00 | 41 | 1010.0 |
| 20260501193245 | 53 | 345 | 3.5 | 7.0 | 0.00 | 0.13 | 0.00 | 41 | 1010.0 |
| 20260501193115 | 53 | 298 | 2.6 | 7.0 | 0.00 | 0.13 | 0.00 | 44 | 1010.0 |
| 20260501193030 | 53 | 26 | 2.6 | 7.0 | 0.00 | 0.13 | 0.00 | 42 | 1010.0 |
| 20260501192840 | 53 | 16 | 0.9 | 6.1 | 0.00 | 0.13 | 0.00 | 40 | 1010.0 |
| 20260501192726 | 53 | 298 | 0.9 | 11.3 | 0.00 | 0.13 | 0.00 | 39 | 1010.0 |
| 20260501192648 | 53 | 298 | 1.7 | 11.3 | 0.00 | 0.13 | 0.00 | 39 | 1010.0 |
| 20260501192552 | 53 | 296 | 2.6 | 11.3 | 0.00 | 0.13 | 0.00 | 40 | 1010.0 |
| 20260501192454 | 53 | 264 | 2.6 | 11.3 | 0.00 | 0.13 | 0.00 | 46 | 1010.0 |
| 20260501192415 | 53 | 269 | 2.6 | 11.3 | 0.00 | 0.13 | 0.00 | 41 | 1009.9 |
| 20260501192238 | 53 | 275 | 2.6 | 11.3 | 0.00 | 0.13 | 0.00 | 40 | 1010.0 |
| 20260501192144 | 53 | 325 | 2.6 | 11.3 | 0.00 | 0.13 | 0.00 | 41 | 1010.0 |
| 20260501192048 | 53 | 273 | 5.2 | 11.3 | 0.00 | 0.13 | 0.00 | 39 | 1010.0 |
| 20260501191950 | 53 | 240 | 6.1 | 11.3 | 0.00 | 0.13 | 0.00 | 39 | 1010.0 |
| 20260501191910 | 54 | 306 | 6.1 | 13.0 | 0.00 | 0.13 | 0.00 | 39 | 1010.0 |
| 20260501191831 | 54 | 9 | 3.5 | 13.0 | 0.00 | 0.13 | 0.00 | 41 | 1010.1 |
| 20260501191712 | 54 | 304 | 2.6 | 13.0 | 0.00 | 0.13 | 0.00 | 40 | 1010.0 |
| 20260501191633 | 54 | 272 | 4.3 | 13.9 | 0.00 | 0.13 | 0.00 | 40 | 1010.0 |
| 20260501191437 | 54 | 327 | 7.0 | 16.5 | 0.00 | 0.13 | 0.00 | 39 | 1010.1 |
| 20260501191338 | 54 | 355 | 7.8 | 16.5 | 0.00 | 0.13 | 0.00 | 41 | 1010.1 |
| 20260501191222 | 54 | 332 | 9.6 | 16.5 | 0.00 | 0.13 | 0.00 | 41 | 1010.1 |
| 20260501191148 | 54 | 317 | 10.4 | 16.5 | 0.00 | 0.13 | 0.00 | 39 | 1010.1 |
| 20260501191102 | 54 | 336 | 10.4 | 16.5 | 0.00 | 0.13 | 0.00 | 39 | 1010.1 |
| 20260501190910 | 54 | 360 | 9.6 | 16.5 | 0.00 | 0.13 | 0.00 | 39 | 1010.1 |
| 20260501190831 | 54 | 360 | 7.8 | 16.5 | 0.00 | 0.13 | 0.00 | 40 | 1010.1 |
| 20260501190634 | 54 | 326 | 6.1 | 10.4 | 0.00 | 0.13 | 0.00 | 40 | 1010.1 |
| 20260501190556 | 54 | 312 | 7.0 | 10.4 | 0.00 | 0.13 | 0.00 | 42 | 1010.1 |
| 20260501190500 | 54 | 355 | 5.2 | 10.4 | 0.00 | 0.13 | 0.00 | 40 | 1010.1 |
| 20260501190422 | 54 | 265 | 4.3 | 8.7 | 0.00 | 0.13 | 0.00 | 42 | 1010.1 |
| 20260501190233 | 54 | 317 | 3.5 | 8.7 | 0.00 | 0.13 | 0.00 | 43 | 1010.1 |
| 20260501190124 | 53 | 334 | 3.5 | 8.7 | 0.00 | 0.13 | 0.00 | 40 | 1010.2 |
| 20260501190051 | 53 | 360 | 3.5 | 8.7 | 0.00 | 0.13 | 0.00 | 43 | 1010.2 |
| 20260501185954 | 53 | 286 | 3.5 | 8.7 | 0.00 | 0.15 | 0.00 | 43 | 1010.3 |
| 20260501185855 | 53 | 261 | 4.3 | 8.7 | 0.00 | 0.15 | 0.00 | 44 | 1010.3 |
| 20260501185817 | 53 | 335 | 4.3 | 8.7 | 0.00 | 0.15 | 0.00 | 41 | 1010.3 |
| 20260501185721 | 53 | 335 | 4.3 | 8.7 | 0.00 | 0.15 | 0.00 | 43 | 1010.3 |
| 20260501185621 | 53 | 317 | 4.3 | 7.8 | 0.00 | 0.15 | 0.00 | 41 | 1010.3 |
| 20260501185424 | 53 | 285 | 5.2 | 10.4 | 0.00 | 0.15 | 0.00 | 42 | 1010.3 |
| 20260501185325 | 53 | 329 | 4.3 | 10.4 | 0.00 | 0.15 | 0.00 | 44 | 1010.4 |
| 20260501185229 | 52 | 321 | 4.3 | 10.4 | 0.00 | 0.15 | 0.00 | 44 | 1010.4 |
| 20260501185130 | 52 | 35 | 3.5 | 10.4 | 0.00 | 0.15 | 0.00 | 43 | 1010.4 |
| 20260501185059 | 52 | 35 | 3.5 | 10.4 | 0.00 | 0.15 | 0.00 | 43 | 1010.4 |
| 20260501185001 | 52 | 323 | 2.6 | 10.4 | 0.00 | 0.15 | 0.00 | 43 | 1010.5 |
| 20260501184923 | 52 | 302 | 4.3 | 10.4 | 0.00 | 0.15 | 0.00 | 43 | 1010.5 |
| 20260501184727 | 52 | 313 | 6.1 | 10.4 | 0.00 | 0.15 | 0.00 | 41 | 1010.5 |
| 20260501184638 | 52 | 319 | 7.0 | 10.4 | 0.00 | 0.15 | 0.00 | 40 | 1010.5 |
| 20260501184522 | 52 | 355 | 6.1 | 10.4 | 0.00 | 0.15 | 0.00 | 43 | 1010.5 |
| 20260501184444 | 52 | 347 | 7.0 | 10.4 | 0.00 | 0.15 | 0.00 | 42 | 1010.5 |
| 20260501184339 | 52 | 330 | 6.1 | 10.4 | 0.00 | 0.15 | 0.00 | 44 | 1010.5 |
| 20260501184225 | 52 | 327 | 4.3 | 10.4 | 0.00 | 0.15 | 0.00 | 42 | 1010.4 |
| 20260501184148 | 52 | 308 | 5.2 | 10.4 | 0.00 | 0.15 | 0.00 | 41 | 1010.4 |
| 20260501184110 | 52 | 328 | 6.1 | 10.4 | 0.00 | 0.15 | 0.00 | 42 | 1010.5 |
| 20260501184014 | 52 | 298 | 6.1 | 10.4 | 0.00 | 0.15 | 0.00 | 42 | 1010.5 |
| 20260501183936 | 52 | 9 | 5.2 | 11.3 | 0.00 | 0.15 | 0.00 | 41 | 1010.5 |
| 20260501183805 | 52 | 339 | 3.5 | 11.3 | 0.00 | 0.15 | 0.00 | 41 | 1010.5 |
| 20260501183721 | 53 | 23 | 4.3 | 11.3 | 0.00 | 0.15 | 0.00 | 39 | 1010.5 |
| 20260501183531 | 53 | 57 | 5.2 | 11.3 | 0.00 | 0.15 | 0.00 | 42 | 1010.6 |
| 20260501183446 | 53 | 53 | 5.2 | 11.3 | 0.00 | 0.15 | 0.00 | 42 | 1010.6 |
| 20260501183316 | 53 | 312 | 5.2 | 11.3 | 0.00 | 0.15 | 0.00 | 41 | 1010.6 |
| 20260501183216 | 53 | 5 | 7.0 | 11.3 | 0.00 | 0.15 | 0.00 | 41 | 1010.6 |
| 20260501182933 | 53 | 348 | 8.7 | 12.2 | 0.00 | 0.15 | 0.00 | 42 | 1010.6 |
| 20260501182834 | 54 | 328 | 7.8 | 13.0 | 0.00 | 0.15 | 0.00 | 40 | 1010.6 |
| 20260501182736 | 54 | 302 | 6.1 | 13.0 | 0.00 | 0.15 | 0.00 | 42 | 1010.5 |
| 20260501182659 | 54 | 272 | 4.3 | 13.0 | 0.00 | 0.15 | 0.00 | 42 | 1010.5 |
| 20260501182620 | 54 | 259 | 4.3 | 13.0 | 0.00 | 0.15 | 0.00 | 40 | 1010.5 |
| 20260501182425 | 53 | 344 | 7.8 | 13.0 | 0.00 | 0.15 | 0.00 | 40 | 1010.6 |
| 20260501182347 | 53 | 5 | 8.7 | 13.0 | 0.00 | 0.15 | 0.00 | 42 | 1010.6 |
| 20260501182251 | 53 | 315 | 9.6 | 13.0 | 0.00 | 0.15 | 0.00 | 44 | 1010.6 |
| 20260501182132 | 53 | 315 | 9.6 | 13.0 | 0.00 | 0.15 | 0.00 | 44 | 1010.5 |
| 20260501182035 | 53 | 340 | 7.8 | 13.0 | 0.00 | 0.15 | 0.00 | 43 | 1010.5 |
| 20260501182001 | 53 | 338 | 6.1 | 11.3 | 0.00 | 0.15 | 0.00 | 42 | 1010.5 |
| 20260501181922 | 53 | 360 | 5.2 | 11.3 | 0.00 | 0.15 | 0.00 | 42 | 1010.5 |
| 20260501181726 | 53 | 340 | 6.1 | 11.3 | 0.00 | 0.15 | 0.00 | 41 | 1010.5 |
| 20260501181628 | 53 | 346 | 3.5 | 10.4 | 0.00 | 0.15 | 0.00 | 40 | 1010.6 |
| 20260501181532 | 53 | 15 | 3.5 | 10.4 | 0.00 | 0.15 | 0.00 | 44 | 1010.6 |
| 20260501181434 | 53 | 360 | 4.3 | 10.4 | 0.00 | 0.15 | 0.00 | 42 | 1010.6 |
| 20260501181339 | 53 | 350 | 5.2 | 10.4 | 0.00 | 0.15 | 0.00 | 44 | 1010.5 |
| 20260501181224 | 52 | 311 | 2.6 | 10.4 | 0.00 | 0.15 | 0.00 | 43 | 1010.5 |
| 20260501181149 | 52 | 355 | 2.6 | 10.4 | 0.00 | 0.15 | 0.00 | 43 | 1010.5 |
| 20260501181019 | 52 | 274 | 3.5 | 10.4 | 0.00 | 0.15 | 0.00 | 41 | 1010.6 |
| 20260501180934 | 52 | 323 | 5.2 | 10.4 | 0.00 | 0.15 | 0.00 | 42 | 1010.6 |
| 20260501180804 | 53 | 22 | 6.1 | 10.4 | 0.00 | 0.15 | 0.00 | 41 | 1010.6 |
| 20260501180724 | 53 | 360 | 4.3 | 13.0 | 0.00 | 0.15 | 0.00 | 41 | 1010.6 |
| 20260501180526 | 52 | 51 | 3.5 | 13.0 | 0.00 | 0.15 | 0.00 | 42 | 1010.6 |
| 20260501180448 | 52 | 44 | 3.5 | 13.0 | 0.00 | 0.15 | 0.00 | 42 | 1010.6 |
| 20260501180352 | 52 | 14 | 3.5 | 13.0 | 0.00 | 0.15 | 0.00 | 41 | 1010.7 |
| 20260501180233 | 52 | 325 | 5.2 | 13.0 | 0.00 | 0.15 | 0.00 | 38 | 1010.7 |
| 20260501180137 | 53 | 273 | 8.7 | 13.0 | 0.00 | 0.15 | 0.00 | 40 | 1010.7 |
| 20260501180037 | 53 | 344 | 9.6 | 13.0 | 0.00 | 0.15 | 0.00 | 40 | 1010.7 |
| 20260501175911 | 53 | 339 | 9.6 | 13.9 | 0.00 | 0.17 | 0.00 | 42 | 1010.7 |
| 20260501175635 | 53 | 31 | 5.2 | 13.9 | 0.00 | 0.17 | 0.00 | 43 | 1010.6 |
| 20260501175557 | 53 | 321 | 3.5 | 13.9 | 0.00 | 0.17 | 0.00 | 42 | 1010.6 |
| 20260501175500 | 53 | 304 | 3.5 | 13.9 | 0.00 | 0.17 | 0.00 | 43 | 1010.6 |
| 20260501175341 | 53 | 11 | 5.2 | 13.9 | 0.00 | 0.17 | 0.00 | 42 | 1010.6 |
| 20260501175234 | 53 | 328 | 9.6 | 13.9 | 0.00 | 0.17 | 0.00 | 42 | 1010.7 |
| 20260501175157 | 53 | 325 | 9.6 | 13.9 | 0.00 | 0.17 | 0.00 | 42 | 1010.7 |
| 20260501175116 | 53 | 338 | 10.4 | 13.9 | 0.00 | 0.17 | 0.00 | 41 | 1010.6 |
| 20260501174930 | 54 | 345 | 7.0 | 11.3 | 0.00 | 0.17 | 0.00 | 47 | 1010.6 |
| 20260501174824 | 53 | 313 | 6.1 | 11.3 | 0.00 | 0.17 | 0.00 | 43 | 1010.6 |
| 20260501174746 | 53 | 12 | 3.5 | 7.8 | 0.00 | 0.17 | 0.00 | 43 | 1010.6 |
| 20260501174648 | 53 | 310 | 2.6 | 7.8 | 0.00 | 0.17 | 0.00 | 41 | 1010.6 |
| 20260501174529 | 53 | 291 | 2.6 | 10.4 | 0.00 | 0.17 | 0.00 | 46 | 1010.5 |
| 20260501174451 | 53 | 294 | 1.7 | 10.4 | 0.00 | 0.17 | 0.00 | 45 | 1010.5 |
| 20260501174412 | 53 | 130 | 2.6 | 10.4 | 0.00 | 0.17 | 0.00 | 45 | 1010.5 |
| 20260501174315 | 53 | 286 | 1.7 | 10.4 | 0.00 | 0.17 | 0.00 | 45 | 1010.6 |
| 20260501174235 | 53 | 294 | 1.7 | 10.4 | 0.00 | 0.17 | 0.00 | 45 | 1010.6 |
| 20260501174105 | 53 | 21 | 2.6 | 10.4 | 0.00 | 0.17 | 0.00 | 44 | 1010.6 |
| 20260501174019 | 53 | 59 | 3.5 | 10.4 | 0.00 | 0.17 | 0.00 | 41 | 1010.7 |
| 20260501173833 | 53 | 311 | 5.2 | 10.4 | 0.00 | 0.17 | 0.00 | 42 | 1010.6 |
| 20260501173725 | 53 | 314 | 4.3 | 10.4 | 0.00 | 0.17 | 0.00 | 42 | 1010.7 |
| 20260501173648 | 53 | 320 | 4.3 | 10.4 | 0.00 | 0.17 | 0.00 | 42 | 1010.7 |
| 20260501173540 | 53 | 5 | 3.5 | 10.4 | 0.00 | 0.17 | 0.00 | 42 | 1010.7 |
| 20260501173502 | 53 | 346 | 4.3 | 10.4 | 0.00 | 0.17 | 0.00 | 42 | 1010.7 |
| 20260501173416 | 53 | 306 | 4.3 | 10.4 | 0.00 | 0.17 | 0.00 | 44 | 1010.7 |
| 20260501173245 | 53 | 288 | 5.2 | 10.4 | 0.00 | 0.17 | 0.00 | 48 | 1010.7 |
| 20260501173148 | 53 | 355 | 5.2 | 10.4 | 0.00 | 0.17 | 0.00 | 46 | 1010.7 |
| 20260501173109 | 53 | 334 | 4.3 | 10.4 | 0.00 | 0.17 | 0.00 | 44 | 1010.7 |
| 20260501173013 | 53 | 32 | 5.2 | 10.4 | 0.00 | 0.17 | 0.00 | 44 | 1010.7 |
| 20260501172935 | 53 | 321 | 6.1 | 10.4 | 0.00 | 0.17 | 0.00 | 45 | 1010.6 |
| 20260501172808 | 53 | 329 | 7.0 | 13.0 | 0.00 | 0.17 | 0.00 | 44 | 1010.7 |
| 20260501172712 | 53 | 306 | 7.0 | 13.0 | 0.00 | 0.17 | 0.00 | 44 | 1010.7 |
| 20260501172633 | 53 | 337 | 5.2 | 13.0 | 0.00 | 0.17 | 0.00 | 45 | 1010.7 |
| 20260501172435 | 53 | 351 | 7.0 | 13.0 | 0.00 | 0.17 | 0.00 | 45 | 1010.7 |
| 20260501172337 | 53 | 350 | 7.8 | 13.0 | 0.00 | 0.17 | 0.00 | 46 | 1010.7 |
| 20260501172222 | 52 | 338 | 7.0 | 13.0 | 0.00 | 0.17 | 0.00 | 46 | 1010.7 |
| 20260501172144 | 52 | 5 | 7.8 | 13.0 | 0.00 | 0.17 | 0.00 | 44 | 1010.7 |
| 20260501172038 | 52 | 355 | 7.8 | 13.0 | 0.00 | 0.17 | 0.00 | 44 | 1010.7 |
| 20260501171924 | 52 | 19 | 4.3 | 12.2 | 0.00 | 0.17 | 0.00 | 43 | 1010.7 |
| 20260501171847 | 52 | 323 | 4.3 | 12.2 | 0.00 | 0.17 | 0.00 | 43 | 1010.7 |
| 20260501171808 | 52 | 10 | 5.2 | 12.2 | 0.00 | 0.17 | 0.00 | 43 | 1010.7 |
| 20260501171729 | 52 | 294 | 6.1 | 12.2 | 0.00 | 0.17 | 0.00 | 45 | 1010.8 |
| 20260501171611 | 52 | 326 | 7.0 | 12.2 | 0.00 | 0.17 | 0.00 | 45 | 1010.8 |
| 20260501171532 | 52 | 327 | 7.8 | 12.2 | 0.00 | 0.17 | 0.00 | 44 | 1010.9 |
| 20260501171335 | 52 | 340 | 6.1 | 12.2 | 0.00 | 0.17 | 0.00 | 47 | 1010.8 |
| 20260501171236 | 52 | 350 | 3.5 | 9.6 | 0.00 | 0.17 | 0.00 | 49 | 1010.8 |
| 20260501171140 | 52 | 355 | 4.3 | 9.6 | 0.00 | 0.17 | 0.00 | 49 | 1010.8 |
| 20260501171101 | 52 | 15 | 4.3 | 10.4 | 0.00 | 0.17 | 0.00 | 48 | 1010.8 |
| 20260501170910 | 52 | 49 | 1.7 | 10.4 | 0.00 | 0.17 | 0.00 | 44 | 1010.9 |
| 20260501170828 | 52 | 340 | 0.9 | 10.4 | 0.00 | 0.17 | 0.00 | 44 | 1010.9 |
| 20260501170637 | 51 | 319 | 2.6 | 10.4 | 0.00 | 0.17 | 0.00 | 48 | 1010.8 |
| 20260501170551 | 51 | 194 | 3.5 | 10.4 | 0.00 | 0.17 | 0.00 | 46 | 1011.0 |
| 20260501170400 | 51 | 302 | 6.1 | 10.4 | 0.00 | 0.17 | 0.00 | 46 | 1010.9 |
| 20260501170258 | 51 | 317 | 5.2 | 10.4 | 0.00 | 0.17 | 0.00 | 46 | 1010.9 |
| 20260501170129 | 51 | 325 | 5.2 | 8.7 | 0.00 | 0.17 | 0.00 | 47 | 1010.9 |
| 20260501170022 | 51 | 318 | 5.2 | 8.7 | 0.00 | 0.17 | 0.00 | 45 | 1011.0 |
| 20260501165831 | 51 | 311 | 4.3 | 8.7 | 0.00 | 0.20 | 0.00 | 47 | 1011.0 |
| 20260501165726 | 51 | 355 | 4.3 | 8.7 | 0.00 | 0.20 | 0.00 | 47 | 1011.0 |
| 20260501165627 | 51 | 38 | 5.2 | 8.7 | 0.00 | 0.20 | 0.00 | 47 | 1011.0 |
| 20260501165528 | 51 | 336 | 5.2 | 8.7 | 0.00 | 0.20 | 0.00 | 48 | 1011.0 |
| 20260501165433 | 50 | 286 | 3.5 | 8.7 | 0.00 | 0.20 | 0.00 | 49 | 1011.0 |
| 20260501165354 | 50 | 318 | 3.5 | 8.7 | 0.00 | 0.20 | 0.00 | 46 | 1011.0 |
| 20260501165202 | 51 | 225 | 6.1 | 8.7 | 0.00 | 0.20 | 0.00 | 45 | 1011.0 |
| 20260501165056 | 51 | 232 | 6.1 | 9.6 | 0.00 | 0.20 | 0.00 | 45 | 1011.0 |
| 20260501164904 | 51 | 217 | 4.3 | 14.8 | 0.00 | 0.20 | 0.00 | 46 | 1011.0 |
| 20260501164824 | 51 | 281 | 3.5 | 14.8 | 0.00 | 0.20 | 0.00 | 45 | 1011.0 |
| 20260501164625 | 51 | 238 | 3.5 | 14.8 | 0.00 | 0.20 | 0.00 | 46 | 1011.0 |
| 20260501164433 | 51 | 344 | 5.2 | 14.8 | 0.00 | 0.20 | 0.00 | 47 | 1011.0 |
| 20260501164357 | 51 | 269 | 6.1 | 14.8 | 0.00 | 0.20 | 0.00 | 45 | 1011.0 |
| 20260501164314 | 51 | 305 | 6.1 | 14.8 | 0.00 | 0.20 | 0.00 | 46 | 1011.0 |
| 20260501164125 | 51 | 311 | 7.0 | 14.8 | 0.00 | 0.20 | 0.00 | 46 | 1011.1 |
| 20260501164039 | 51 | 348 | 6.1 | 12.2 | 0.00 | 0.20 | 0.00 | 50 | 1011.0 |
| 20260501163828 | 51 | 342 | 4.3 | 9.6 | 0.00 | 0.20 | 0.00 | 49 | 1011.0 |
| 20260501163741 | 51 | 345 | 4.3 | 9.6 | 0.00 | 0.20 | 0.00 | 49 | 1010.9 |